DL9MFL-6 Weather Reports


time (UTC)temp
F
wind
direction
speed
knots
gust
knots
rain 1hr
in
rain 24hr
in
rain mn
in
humidity
%
barometer
mb
20260510011111 46 140 1.7 4.3 0.00 0.00 0.00 80 1010.7
20260510011010 46 140 1.7 4.3 0.00 0.00 0.00 80 1010.7
20260510010907 46 140 1.7 4.3 0.00 0.00 0.00 80 1010.7
20260510010839 46 140 0.9 4.3 0.00 0.00 0.00 80 1010.7
20260510010805 46 140 0.9 4.3 0.00 0.00 0.00 80 1010.7
20260510010705 46 138 0.9 4.3 0.00 0.00 0.00 80 1010.7
20260510010605 46 135 0.9 4.3 0.00 0.00 0.00 80 1010.7
20260510010505 46 138 0.9 2.6 0.00 0.00 0.00 80 1010.7
20260510010405 46 136 0.9 2.6 0.00 0.00 0.00 80 1010.7
20260510010337 46 136 0.9 2.6 0.00 0.00 0.00 80 1010.7
20260510010303 46 136 0.9 2.6 0.00 0.00 0.00 80 1010.7
20260510010201 46 136 0.9 2.6 0.00 0.00 0.00 80 1010.7
20260510010001 46 135 0.9 2.6 0.00 0.00 0.00 80 1010.7
20260510005901 47 136 0.9 2.6 0.00 0.00 0.00 80 1010.7
20260510005835 47 136 0.9 2.6 0.00 0.00 0.00 80 1010.7
20260510005801 47 136 0.9 2.6 0.00 0.00 0.00 80 1010.7
20260510005701 47 135 0.9 2.6 0.00 0.00 0.00 80 1010.7
20260510005605 47 135 0.0 2.6 0.00 0.00 0.00 80 1010.7
20260510005600 47 135 0.0 2.6 0.00 0.00 0.00 80 1010.8
20260510005555 47 135 0.0 2.6 0.00 0.00 0.00 80 1010.8
20260510005546 47 135 0.0 2.6 0.00 0.00 0.00 80 1010.8
20260510005301 47 135 0.0 2.6 0.00 0.00 0.00 80 1010.8
20260510005201 47 135 0.0 2.6 0.00 0.00 0.00 80 1010.8
20260510005101 47 135 0.0 2.6 0.00 0.00 0.00 80 1010.8
20260510005001 47 135 0.0 0.9 0.00 0.00 0.00 80 1010.8
20260510004901 47 135 0.0 0.9 0.00 0.00 0.00 80 1010.8
20260510004835 47 135 0.0 0.9 0.00 0.00 0.00 80 1010.8
20260510004801 47 135 0.0 0.9 0.00 0.00 0.00 80 1010.8
20260510004701 47 135 0.0 0.9 0.00 0.00 0.00 80 1010.8
20260510004601 47 135 0.0 0.9 0.00 0.00 0.00 80 1010.8
20260510004501 47 135 0.0 0.9 0.00 0.00 0.00 80 1010.8
20260510004400 47 135 0.0 0.9 0.00 0.00 0.00 80 1010.8
20260510004335 47 135 0.0 0.9 0.00 0.00 0.00 80 1010.8
20260510004300 47 135 0.0 0.9 0.00 0.00 0.00 80 1010.8
20260510004201 47 135 0.0 0.9 0.00 0.00 0.00 80 1010.8
20260510004101 47 135 0.0 0.9 0.00 0.00 0.00 80 1010.8
20260510004001 47 135 0.0 1.7 0.00 0.00 0.00 80 1010.8
20260510003901 47 135 0.0 1.7 0.00 0.00 0.00 80 1010.8
20260510003835 47 135 0.0 1.7 0.00 0.00 0.00 80 1010.8
20260510003801 47 135 0.0 1.7 0.00 0.00 0.00 80 1010.8
20260510003700 47 135 0.9 1.7 0.00 0.00 0.00 80 1010.8
20260510003607 47 135 0.9 1.7 0.00 0.00 0.00 80 1010.8
20260510003600 47 135 0.9 1.7 0.00 0.00 0.00 80 1010.8
20260510003556 47 135 0.9 1.7 0.00 0.00 0.00 80 1010.8
20260510003548 47 135 0.9 1.7 0.00 0.00 0.00 80 1010.8
20260510003301 47 135 0.9 1.7 0.00 0.00 0.00 80 1010.8
20260510003201 47 135 0.9 1.7 0.00 0.00 0.00 79 1010.8
20260510003101 47 135 0.9 1.7 0.00 0.00 0.00 79 1010.8
20260510003001 47 135 0.9 2.6 0.00 0.00 0.00 79 1010.8
20260510002901 48 135 0.9 2.6 0.00 0.00 0.00 79 1010.8
20260510002837 47 135 0.9 2.6 0.00 0.00 0.00 79 1010.8
20260510002801 48 135 0.9 2.6 0.00 0.00 0.00 79 1010.8
20260510002701 48 135 0.9 2.6 0.00 0.00 0.00 78 1010.8
20260510002601 48 135 0.9 2.6 0.00 0.00 0.00 78 1010.8
20260510002501 48 135 1.7 2.6 0.00 0.00 0.00 79 1010.9
20260510002401 48 135 1.7 2.6 0.00 0.00 0.00 79 1010.9
20260510002333 48 135 1.7 2.6 0.00 0.00 0.00 79 1010.9
20260510002301 48 135 1.7 3.5 0.00 0.00 0.00 79 1010.9
20260510002201 48 135 1.7 3.5 0.00 0.00 0.00 79 1010.9
20260510002101 48 136 1.7 3.5 0.00 0.00 0.00 79 1010.9
20260510002001 48 135 1.7 3.5 0.00 0.00 0.00 79 1011.0
20260510001901 48 135 1.7 3.5 0.00 0.00 0.00 79 1011.0
20260510001833 48 134 1.7 3.5 0.00 0.00 0.00 79 1011.0
20260510001800 48 134 1.7 3.5 0.00 0.00 0.00 78 1011.0
20260510001701 48 133 1.7 3.5 0.00 0.00 0.00 78 1011.0
20260510001601 48 132 1.7 3.5 0.00 0.00 0.00 78 1011.0
20260510001501 48 130 1.7 3.5 0.00 0.00 0.00 78 1011.0
20260510001405 48 128 1.7 3.5 0.00 0.00 0.00 77 1011.0
20260510001331 48 127 1.7 3.5 0.00 0.00 0.00 77 1011.0
20260510001300 48 126 1.7 3.5 0.00 0.00 0.00 77 1011.0
20260510001200 48 126 1.7 3.5 0.00 0.00 0.00 76 1011.0
20260510001100 49 124 1.7 2.6 0.00 0.00 0.00 76 1011.0
20260510001000 49 122 1.7 2.6 0.00 0.00 0.00 76 1011.0
20260510000904 49 121 1.7 2.6 0.00 0.00 0.00 76 1011.0
20260510000831 49 121 1.7 2.6 0.00 0.00 0.00 76 1011.0
20260510000801 49 121 1.7 2.6 0.00 0.00 0.00 76 1011.0
20260510000700 49 121 1.7 2.6 0.00 0.00 0.00 76 1011.0
20260510000600 49 120 1.7 2.6 0.00 0.00 0.00 75 1011.0
20260510000500 49 119 1.7 2.6 0.00 0.00 0.00 75 1011.0
20260510000400 49 119 0.9 2.6 0.00 0.00 0.00 75 1011.0
20260510000333 49 118 0.9 2.6 0.00 0.00 0.00 75 1011.1
20260510000304 49 117 0.9 2.6 0.00 0.00 0.00 75 1011.1
20260510000200 49 114 0.9 2.6 0.00 0.00 0.00 75 1011.0
20260510000001 49 113 1.7 2.6 0.00 0.00 0.00 75 1011.1
20260509235901 50 113 1.7 2.6 0.00 0.00 0.00 75 1011.1
20260509235800 50 113 1.7 2.6 0.00 0.00 0.00 75 1011.1
20260509235701 50 113 1.7 2.6 0.00 0.00 0.00 75 1011.1
20260509235601 50 113 0.9 2.6 0.00 0.00 0.00 76 1011.1
20260509235501 50 111 0.9 2.6 0.00 0.00 0.00 76 1011.1
20260509235401 50 111 0.9 2.6 0.00 0.00 0.00 76 1011.1
20260509235301 50 111 0.9 2.6 0.00 0.00 0.00 76 1011.1
20260509235201 50 111 0.9 2.6 0.00 0.00 0.00 76 1011.2
20260509235101 50 111 0.9 2.6 0.00 0.00 0.00 76 1011.2
20260509235001 50 111 0.9 2.6 0.00 0.00 0.00 76 1011.1
20260509234901 50 111 0.9 2.6 0.00 0.00 0.00 76 1011.1
20260509234830 50 110 0.9 2.6 0.00 0.00 0.00 76 1011.2
20260509234800 50 110 0.9 2.6 0.00 0.00 0.00 76 1011.2
20260509234701 50 110 0.9 2.6 0.00 0.00 0.00 76 1011.2
20260509234601 50 110 0.9 2.6 0.00 0.00 0.00 76 1011.2
20260509234501 50 111 0.9 2.6 0.00 0.00 0.00 76 1011.1
20260509234401 50 111 0.9 1.7 0.00 0.00 0.00 76 1011.2
20260509234300 50 111 0.9 1.7 0.00 0.00 0.00 76 1011.2
20260509234200 50 111 0.9 1.7 0.00 0.00 0.00 76 1011.2
20260509234100 50 111 0.9 1.7 0.00 0.00 0.00 76 1011.2
20260509234000 51 112 0.9 1.7 0.00 0.00 0.00 76 1011.2
20260509233857 51 112 0.9 1.7 0.00 0.00 0.00 75 1011.2
20260509233829 51 112 0.9 1.7 0.00 0.00 0.00 75 1011.3
20260509233756 51 112 0.9 1.7 0.00 0.00 0.00 75 1011.3
20260509233656 51 112 0.9 2.6 0.00 0.00 0.00 75 1011.3
20260509233558 51 112 0.9 2.6 0.00 0.00 0.00 75 1011.4
20260509233548 51 112 0.9 2.6 0.00 0.00 0.00 75 1011.4
20260509233544 51 112 0.9 2.6 0.00 0.00 0.00 75 1011.3
20260509233252 51 112 0.9 2.6 0.00 0.00 0.00 75 1011.4
20260509233152 51 112 0.9 2.6 0.00 0.00 0.00 75 1011.4
20260509233052 51 112 0.9 2.6 0.00 0.00 0.00 75 1011.4
20260509232950 51 112 0.9 2.6 0.00 0.00 0.00 75 1011.4
20260509232829 51 112 0.9 2.6 0.00 0.00 0.00 75 1011.4
20260509232745 51 112 0.9 2.6 0.00 0.00 0.00 74 1011.4
20260509232645 51 113 0.9 2.6 0.00 0.00 0.00 74 1011.4
20260509232545 51 112 0.9 2.6 0.00 0.00 0.00 74 1011.4
20260509232445 51 113 0.9 2.6 0.00 0.00 0.00 74 1011.4
20260509232332 51 113 0.9 2.6 0.00 0.00 0.00 74 1011.5
20260509232322 51 111 0.9 1.7 0.00 0.00 0.00 74 1011.4
20260509232312 51 113 0.9 2.6 0.00 0.00 0.00 74 1011.5
20260509232308 51 113 0.9 2.6 0.00 0.00 0.00 74 1011.5
20260509232053 51 113 0.9 2.6 0.00 0.00 0.00 74 1011.5
20260509232051 51 112 0.9 2.6 0.00 0.00 0.00 74 1011.5
20260509232045 51 111 0.9 1.7 0.00 0.00 0.00 74 1011.4
20260509231736 51 111 0.9 2.6 0.00 0.00 0.00 74 1011.5
20260509231637 51 111 0.9 2.6 0.00 0.00 0.00 74 1011.5
20260509231535 52 111 0.9 2.6 0.00 0.00 0.00 73 1011.5
20260509231435 52 111 0.9 3.5 0.00 0.00 0.00 73 1011.5
20260509231330 52 111 0.9 3.5 0.00 0.00 0.00 73 1011.5
20260509231234 52 111 0.9 3.5 0.00 0.00 0.00 73 1011.5
20260509231135 52 111 0.9 3.5 0.00 0.00 0.00 73 1011.5
20260509231033 52 111 0.9 3.5 0.00 0.00 0.00 73 1011.5
20260509230933 52 111 0.9 3.5 0.00 0.00 0.00 73 1011.6
20260509230829 52 111 0.9 3.5 0.00 0.00 0.00 73 1011.5
20260509230733 52 111 0.9 3.5 0.00 0.00 0.00 73 1011.5
20260509230631 52 111 0.9 3.5 0.00 0.00 0.00 73 1011.5
20260509230531 52 112 0.9 3.5 0.00 0.00 0.00 73 1011.5
20260509230430 52 114 0.9 3.5 0.00 0.00 0.00 72 1011.5
20260509230331 52 134 0.9 1.7 0.00 0.00 0.00 72 1011.5
20260509230230 52 135 0.9 1.7 0.00 0.00 0.00 72 1011.5
20260509230130 52 135 0.9 1.7 0.00 0.00 0.00 72 1011.5
20260509230029 52 136 0.9 1.7 0.00 0.00 0.00 72 1011.5
20260509225928 52 136 0.9 2.6 0.00 0.00 0.00 72 1011.5
20260509225829 52 136 0.9 2.6 0.00 0.00 0.00 72 1011.5
20260509225729 53 136 0.9 2.6 0.00 0.00 0.00 72 1011.5
20260509225629 53 136 0.9 2.6 0.00 0.00 0.00 72 1011.6
20260509225529 53 136 0.9 2.6 0.00 0.00 0.00 71 1011.6
20260509225428 53 137 0.9 2.6 0.00 0.00 0.00 71 1011.6
20260509225329 53 137 0.9 2.6 0.00 0.00 0.00 71 1011.6
20260509225229 53 137 0.9 2.6 0.00 0.00 0.00 71 1011.6
20260509225129 53 137 0.9 2.6 0.00 0.00 0.00 71 1011.6
20260509225029 53 137 0.9 2.6 0.00 0.00 0.00 70 1011.6
20260509224929 53 137 0.9 2.6 0.00 0.00 0.00 70 1011.6
20260509224829 53 138 0.9 2.6 0.00 0.00 0.00 70 1011.6
20260509224728 53 138 0.9 2.6 0.00 0.00 0.00 70 1011.7
20260509224628 53 138 0.9 2.6 0.00 0.00 0.00 70 1011.7
20260509224529 53 138 0.9 2.6 0.00 0.00 0.00 70 1011.6
20260509224429 53 138 0.9 2.6 0.00 0.00 0.00 70 1011.7
20260509224329 53 138 0.9 2.6 0.00 0.00 0.00 70 1011.7
20260509224228 54 138 0.9 2.6 0.00 0.00 0.00 70 1011.7
20260509224128 54 138 0.9 2.6 0.00 0.00 0.00 70 1011.7
20260509224028 54 138 0.9 1.7 0.00 0.00 0.00 70 1011.7
20260509223929 54 138 0.9 1.7 0.00 0.00 0.00 70 1011.7
20260509223829 54 138 0.9 1.7 0.00 0.00 0.00 70 1011.7
20260509223729 54 138 0.9 1.7 0.00 0.00 0.00 70 1011.7
20260509223629 54 138 0.9 1.7 0.00 0.00 0.00 69 1011.7
20260509223528 54 138 0.9 1.7 0.00 0.00 0.00 69 1011.7
20260509223429 54 138 0.9 1.7 0.00 0.00 0.00 69 1011.7
20260509223328 54 138 0.9 1.7 0.00 0.00 0.00 69 1011.7
20260509223127 54 138 0.9 1.7 0.00 0.00 0.00 69 1011.6
20260509223027 55 138 0.9 1.7 0.00 0.00 0.00 69 1011.7
20260509222927 55 138 0.9 1.7 0.00 0.00 0.00 68 1011.7
20260509222827 55 138 0.9 1.7 0.00 0.00 0.00 68 1011.7
20260509222726 55 138 0.9 1.7 0.00 0.00 0.00 68 1011.7
20260509222626 55 138 0.9 1.7 0.00 0.00 0.00 68 1011.7
20260509222526 55 138 0.9 1.7 0.00 0.00 0.00 68 1011.6
20260509222426 55 138 0.9 2.6 0.00 0.00 0.00 67 1011.7
20260509222325 55 138 0.9 2.6 0.00 0.00 0.00 67 1011.7
20260509222224 55 138 1.7 2.6 0.00 0.00 0.00 68 1011.7
20260509222122 55 138 1.7 2.6 0.00 0.00 0.00 67 1011.7
20260509222022 55 138 1.7 3.5 0.00 0.00 0.00 67 1011.6
20260509221921 55 138 1.7 3.5 0.00 0.00 0.00 67 1011.7
20260509221819 55 138 1.7 3.5 0.00 0.00 0.00 67 1011.7
20260509221719 55 138 1.7 3.5 0.00 0.00 0.00 67 1011.7
20260509221619 55 138 1.7 3.5 0.00 0.00 0.00 67 1011.7
20260509221517 55 138 1.7 3.5 0.00 0.00 0.00 66 1011.7
20260509221417 55 138 2.6 4.3 0.00 0.00 0.00 66 1011.7
20260509221316 55 137 2.6 4.3 0.00 0.00 0.00 66 1011.7
20260509221217 56 137 2.6 4.3 0.00 0.00 0.00 66 1011.7
20260509221116 56 137 2.6 4.3 0.00 0.00 0.00 66 1011.7
20260509221016 56 136 2.6 4.3 0.00 0.00 0.00 66 1011.7
20260509220914 56 133 2.6 4.3 0.00 0.00 0.00 66 1011.7
20260509220815 56 132 2.6 4.3 0.00 0.00 0.00 66 1011.7
20260509220715 56 132 2.6 4.3 0.00 0.00 0.00 66 1011.7
20260509220615 56 128 2.6 4.3 0.00 0.00 0.00 66 1011.7
20260509220543 56 148 1.7 4.3 0.00 0.00 0.00 66 1011.7
20260509220533 56 143 2.6 4.3 0.00 0.00 0.00 66 1011.7
20260509220529 56 144 1.7 4.3 0.00 0.00 0.00 66 1011.7
20260509220312 56 148 1.7 4.3 0.00 0.00 0.00 66 1011.7
20260509220213 56 146 1.7 4.3 0.00 0.00 0.00 66 1011.7
20260509220113 56 148 2.6 4.3 0.00 0.00 0.00 66 1011.7
20260509220012 56 176 2.6 6.1 0.00 0.00 0.00 66 1011.6
20260509215910 56 156 2.6 6.1 0.00 0.00 0.00 66 1011.7
20260509215809 56 171 2.6 6.1 0.00 0.00 0.00 66 1011.6
20260509215709 56 148 2.6 6.1 0.00 0.00 0.00 66 1011.7
20260509215610 56 165 2.6 6.1 0.00 0.00 0.00 66 1011.6
20260509215510 56 148 2.6 6.1 0.00 0.00 0.00 66 1011.6
20260509215410 56 145 2.6 6.1 0.00 0.00 0.00 66 1011.6
20260509215316 56 155 2.6 6.1 0.00 0.00 0.00 66 1011.6
20260509215310 56 156 2.6 6.1 0.00 0.00 0.00 66 1011.6
20260509215209 56 144 2.6 6.1 0.00 0.00 0.00 66 1011.6
20260509215109 56 143 2.6 6.1 0.00 0.00 0.00 66 1011.7
20260509215009 56 151 2.6 6.1 0.00 0.00 0.00 66 1011.6
20260509214910 56 136 2.6 4.3 0.00 0.00 0.00 66 1011.6
20260509214816 56 146 2.6 4.3 0.00 0.00 0.00 66 1011.7
20260509214803 56 141 2.6 4.3 0.00 0.00 0.00 66 1011.7
20260509214704 56 164 2.6 4.3 0.00 0.00 0.00 66 1011.6
20260509214603 56 152 2.6 4.3 0.00 0.00 0.00 66 1011.7
20260509214544 56 149 2.6 5.2 0.00 0.00 0.00 66 1011.7
20260509214531 56 144 2.6 5.2 0.00 0.00 0.00 66 1011.6
20260509214527 56 138 2.6 5.2 0.00 0.00 0.00 66 1011.7
20260509214303 56 148 2.6 5.2 0.00 0.00 0.00 66 1011.7
20260509214203 56 142 2.6 5.2 0.00 0.00 0.00 65 1011.7
20260509214103 56 159 2.6 5.2 0.00 0.00 0.00 66 1011.7
20260509214003 56 148 2.6 5.2 0.00 0.00 0.00 66 1011.6
20260509213904 56 152 1.7 5.2 0.00 0.00 0.00 65 1011.7
20260509213816 57 150 1.7 5.2 0.00 0.00 0.00 65 1011.7
20260509213804 57 149 1.7 5.2 0.00 0.00 0.00 65 1011.7
20260509213701 57 150 1.7 5.2 0.00 0.00 0.00 65 1011.7
20260509213601 57 155 1.7 5.2 0.00 0.00 0.00 65 1011.7
20260509213534 57 148 1.7 5.2 0.00 0.00 0.00 65 1011.7
20260509213529 57 155 1.7 5.2 0.00 0.00 0.00 65 1011.7
20260509213524 57 157 1.7 5.2 0.00 0.00 0.00 65 1011.7
20260509213301 57 150 1.7 5.2 0.00 0.00 0.00 65 1011.7
20260509213201 57 150 1.7 5.2 0.00 0.00 0.00 64 1011.7
20260509213101 57 153 1.7 5.2 0.00 0.00 0.00 65 1011.7
20260509213001 57 145 1.7 5.2 0.00 0.00 0.00 64 1011.7
20260509212902 57 138 1.7 5.2 0.00 0.00 0.00 64 1011.7
20260509212814 58 134 1.7 5.2 0.00 0.00 0.00 64 1011.7
20260509212801 58 132 1.7 5.2 0.00 0.00 0.00 64 1011.7
20260509212701 58 122 1.7 5.2 0.00 0.00 0.00 64 1011.7
20260509212601 58 122 1.7 5.2 0.00 0.00 0.00 64 1011.7
20260509212501 58 115 1.7 5.2 0.00 0.00 0.00 64 1011.7
20260509212401 58 132 1.7 5.2 0.00 0.00 0.00 64 1011.7
20260509212301 58 132 1.7 5.2 0.00 0.00 0.00 64 1011.7
20260509212201 58 123 1.7 5.2 0.00 0.00 0.00 64 1011.7
20260509212101 58 123 1.7 5.2 0.00 0.00 0.00 63 1011.7
20260509212001 58 123 1.7 5.2 0.00 0.00 0.00 63 1011.7
20260509211901 58 115 1.7 5.2 0.00 0.00 0.00 63 1011.8
20260509211814 58 141 1.7 5.2 0.00 0.00 0.00 64 1011.8
20260509211801 58 138 1.7 5.2 0.00 0.00 0.00 63 1011.8
20260509211700 58 111 1.7 5.2 0.00 0.00 0.00 63 1011.8
20260509211600 58 123 1.7 5.2 0.00 0.00 0.00 63 1011.8
20260509211536 58 89 1.7 6.1 0.00 0.00 0.00 63 1011.8
20260509211528 58 119 1.7 6.1 0.00 0.00 0.00 63 1011.8
20260509211524 58 109 1.7 6.1 0.00 0.00 0.00 63 1011.8
20260509211301 58 111 1.7 6.1 0.00 0.00 0.00 63 1011.8
20260509211201 58 115 1.7 6.1 0.00 0.00 0.00 63 1011.8
20260509211100 58 110 1.7 6.1 0.00 0.00 0.00 63 1011.8
20260509211000 58 111 1.7 6.1 0.00 0.00 0.00 63 1011.8
20260509210900 58 91 1.7 6.1 0.00 0.00 0.00 64 1011.8
20260509210800 58 107 1.7 6.1 0.00 0.00 0.00 64 1011.8
20260509210701 58 94 1.7 6.1 0.00 0.00 0.00 63 1011.9
20260509210601 58 120 1.7 7.0 0.00 0.00 0.00 63 1011.8
20260509210501 58 98 1.7 7.0 0.00 0.00 0.00 64 1011.8
20260509210401 58 110 1.7 7.0 0.00 0.00 0.00 63 1011.8
20260509210313 58 104 1.7 7.0 0.00 0.00 0.00 63 1011.8
20260509210301 58 98 1.7 7.0 0.00 0.00 0.00 63 1011.8
20260509210202 58 97 1.7 7.0 0.00 0.00 0.00 63 1011.9
20260509210001 58 75 1.7 7.0 0.00 0.00 0.00 63 1011.9
20260509205901 58 111 1.7 7.0 0.00 0.00 0.00 63 1011.9
20260509205813 58 98 1.7 7.0 0.00 0.00 0.00 63 1011.9
20260509205801 58 111 1.7 7.0 0.00 0.00 0.00 63 1011.9
20260509205701 58 111 1.7 7.0 0.00 0.00 0.00 63 1011.9
20260509205601 58 111 1.7 5.2 0.00 0.00 0.00 63 1011.9
20260509205501 58 105 1.7 5.2 0.00 0.00 0.00 63 1011.9
20260509205401 58 93 1.7 5.2 0.00 0.00 0.00 63 1011.9
20260509205314 58 91 1.7 5.2 0.00 0.00 0.00 63 1011.9
20260509205300 59 76 1.7 5.2 0.00 0.00 0.00 63 1011.9
20260509205201 59 115 0.9 3.5 0.00 0.00 0.00 63 1011.9
20260509205057 59 89 0.9 3.5 0.00 0.00 0.00 63 1011.9
20260509205039 59 108 1.7 5.2 0.00 0.00 0.00 63 1011.9
20260509205029 59 88 1.7 5.2 0.00 0.00 0.00 63 1011.9
20260509205027 59 88 1.7 5.2 0.00 0.00 0.00 63 1011.9
20260509204757 59 111 1.7 5.2 0.00 0.00 0.00 63 1011.9
20260509204657 59 112 1.7 5.2 0.00 0.00 0.00 63 1011.9
20260509204557 59 113 1.7 5.2 0.00 0.00 0.00 63 1011.9
20260509204458 59 117 1.7 5.2 0.00 0.00 0.00 63 1011.9
20260509204358 59 117 1.7 5.2 0.00 0.00 0.00 63 1011.9
20260509204313 59 96 1.7 5.2 0.00 0.00 0.00 63 1011.9
20260509204258 59 90 1.7 5.2 0.00 0.00 0.00 63 1011.9
20260509204158 59 107 1.7 5.2 0.00 0.00 0.00 62 1011.9
20260509204058 59 115 1.7 5.2 0.00 0.00 0.00 63 1011.9
20260509203958 59 112 1.7 5.2 0.00 0.00 0.00 62 1011.9
20260509203858 59 112 1.7 5.2 0.00 0.00 0.00 62 1011.9
20260509203814 59 108 1.7 5.2 0.00 0.00 0.00 62 1011.9
20260509203757 59 86 1.7 5.2 0.00 0.00 0.00 62 1011.9
20260509203658 59 101 0.9 3.5 0.00 0.00 0.00 62 1011.9
20260509203558 59 106 1.7 3.5 0.00 0.00 0.00 62 1011.9
20260509203458 59 101 1.7 3.5 0.00 0.00 0.00 62 1011.9
20260509203357 59 102 1.7 3.5 0.00 0.00 0.00 62 1011.9
20260509203312 59 95 1.7 3.5 0.00 0.00 0.00 62 1011.9
20260509203258 59 103 1.7 3.5 0.00 0.00 0.00 62 1011.9
20260509203153 59 89 1.7 3.5 0.00 0.00 0.00 62 1011.9
20260509203053 60 89 1.7 3.5 0.00 0.00 0.00 62 1011.9
20260509202953 60 104 1.7 3.5 0.00 0.00 0.00 62 1012.0
20260509202853 60 75 1.7 3.5 0.00 0.00 0.00 62 1012.0
20260509202811 60 89 1.7 5.2 0.00 0.00 0.00 62 1012.0
20260509202800 60 98 1.7 5.2 0.00 0.00 0.00 61 1012.1
20260509202756 60 90 1.7 5.2 0.00 0.00 0.00 62 1012.0
20260509202747 60 113 1.7 5.2 0.00 0.00 0.00 61 1012.0
20260509202743 60 96 1.7 5.2 0.00 0.00 0.00 61 1012.0
20260509202526 60 96 1.7 5.2 0.00 0.00 0.00 61 1012.0
20260509202522 60 96 1.7 5.2 0.00 0.00 0.00 61 1012.1
20260509202254 60 106 1.7 5.2 0.00 0.00 0.00 61 1012.0
20260509202153 60 65 1.7 5.2 0.00 0.00 0.00 61 1012.0
20260509202053 60 57 1.7 5.2 0.00 0.00 0.00 60 1012.1
20260509201945 60 116 1.7 5.2 0.00 0.00 0.00 60 1012.1
20260509201844 60 91 1.7 5.2 0.00 0.00 0.00 60 1012.1
20260509201811 60 107 1.7 5.2 0.00 0.00 0.00 60 1012.1
20260509201743 60 63 1.7 5.2 0.00 0.00 0.00 60 1012.1
20260509201641 60 90 1.7 3.5 0.00 0.00 0.00 60 1012.0
20260509201539 60 107 1.7 3.5 0.00 0.00 0.00 60 1012.1
20260509201533 60 116 1.7 4.3 0.00 0.00 0.00 60 1012.1
20260509201526 60 92 1.7 3.5 0.00 0.00 0.00 60 1012.1
20260509201522 60 68 1.7 3.5 0.00 0.00 0.00 60 1012.1
20260509201237 60 89 1.7 5.2 0.00 0.00 0.00 60 1012.1
20260509201136 60 98 1.7 5.2 0.00 0.00 0.00 60 1012.1
20260509201034 60 72 1.7 5.2 0.00 0.00 0.00 59 1012.1
20260509200932 60 79 1.7 5.2 0.00 0.00 0.00 59 1012.1
20260509200829 60 93 1.7 5.2 0.00 0.00 0.00 59 1012.1
20260509200809 60 94 1.7 5.2 0.00 0.00 0.00 59 1012.1
20260509200729 61 86 1.7 5.2 0.00 0.00 0.00 59 1012.1
20260509200629 61 87 1.7 5.2 0.00 0.00 0.00 59 1012.1
20260509200530 61 109 1.7 5.2 0.00 0.00 0.00 59 1012.1
20260509200430 61 97 1.7 5.2 0.00 0.00 0.00 59 1012.1
20260509200330 61 84 1.7 5.2 0.00 0.00 0.00 59 1012.1
20260509200309 61 105 1.7 5.2 0.00 0.00 0.00 59 1012.1
20260509200229 61 78 1.7 5.2 0.00 0.00 0.00 59 1012.1
20260509200129 61 82 1.7 5.2 0.00 0.00 0.00 59 1012.1
20260509200028 61 101 1.7 5.2 0.00 0.00 0.00 59 1012.1
20260509195929 61 96 1.7 3.5 0.00 0.00 0.00 59 1012.3
20260509195807 61 101 1.7 3.5 0.00 0.00 0.00 59 1012.1
20260509195729 61 107 1.7 3.5 0.00 0.00 0.00 59 1012.1
20260509195629 61 96 1.7 3.5 0.00 0.00 0.00 58 1012.1
20260509195533 61 88 1.7 5.2 0.00 0.00 0.00 58 1012.1
20260509195529 61 109 1.7 3.5 0.00 0.00 0.00 58 1012.1
20260509195522 61 99 1.7 5.2 0.00 0.00 0.00 58 1012.1
20260509195518 61 103 1.7 5.2 0.00 0.00 0.00 58 1012.1
20260509195229 61 124 1.7 5.2 0.00 0.00 0.00 58 1012.0
20260509195129 61 126 1.7 5.2 0.00 0.00 0.00 58 1012.0
20260509195028 61 86 1.7 5.2 0.00 0.00 0.00 58 1012.0
20260509194928 61 119 1.7 6.1 0.00 0.00 0.00 58 1012.0
20260509194828 61 90 1.7 6.1 0.00 0.00 0.00 58 1012.0
20260509194806 61 89 1.7 6.1 0.00 0.00 0.00 58 1012.0
20260509194729 61 86 1.7 6.1 0.00 0.00 0.00 58 1012.0
20260509194629 61 55 0.9 6.1 0.00 0.00 0.00 58 1012.0
20260509194530 61 106 0.9 6.1 0.00 0.00 0.00 57 1012.0
20260509194429 61 86 0.9 6.1 0.00 0.00 0.00 57 1012.0
20260509194329 61 74 0.9 6.1 0.00 0.00 0.00 57 1012.0
20260509194305 61 117 0.9 6.1 0.00 0.00 0.00 57 1012.0
20260509194229 61 113 0.9 6.1 0.00 0.00 0.00 57 1011.9
20260509194129 61 94 0.9 6.1 0.00 0.00 0.00 57 1012.0
20260509194029 61 95 0.9 6.1 0.00 0.00 0.00 57 1011.9
20260509193929 61 94 0.9 5.2 0.00 0.00 0.00 57 1011.9
20260509193829 61 106 0.9 5.2 0.00 0.00 0.00 57 1011.9
20260509193802 61 119 0.9 5.2 0.00 0.00 0.00 57 1011.9
20260509193729 62 104 0.9 5.2 0.00 0.00 0.00 57 1011.9
20260509193629 62 103 0.9 5.2 0.00 0.00 0.00 57 1011.9
20260509193529 62 98 0.9 5.2 0.00 0.00 0.00 57 1011.9
20260509193430 62 100 0.9 5.2 0.00 0.00 0.00 57 1011.9
20260509193301 62 111 0.9 5.2 0.00 0.00 0.00 57 1011.9
20260509193229 62 103 0.9 5.2 0.00 0.00 0.00 57 1011.9
20260509193129 62 99 0.9 4.3 0.00 0.00 0.00 57 1011.9
20260509193029 62 78 0.9 4.3 0.00 0.00 0.00 57 1011.9
20260509192929 62 100 0.9 4.3 0.00 0.00 0.00 57 1011.9
20260509192801 62 101 0.9 4.3 0.00 0.00 0.00 57 1011.9
20260509192729 62 113 0.9 4.3 0.00 0.00 0.00 57 1011.9
20260509192629 62 113 0.9 4.3 0.00 0.00 0.00 56 1011.9
20260509192529 62 99 0.9 4.3 0.00 0.00 0.00 56 1011.9
20260509192429 62 77 0.9 4.3 0.00 0.00 0.00 56 1011.9
20260509192328 62 96 0.9 3.5 0.00 0.00 0.00 56 1011.8
20260509192305 62 95 0.9 4.3 0.00 0.00 0.00 56 1011.9
20260509192229 62 94 0.9 4.3 0.00 0.00 0.00 56 1011.9
20260509192129 62 96 1.7 6.1 0.00 0.00 0.00 56 1011.8
20260509192029 62 95 1.7 6.1 0.00 0.00 0.00 56 1011.8
20260509191929 62 136 1.7 6.1 0.00 0.00 0.00 56 1011.8
20260509191829 62 81 1.7 6.1 0.00 0.00 0.00 56 1011.8
20260509191800 62 89 1.7 6.1 0.00 0.00 0.00 56 1011.8
20260509191729 62 84 1.7 6.1 0.00 0.00 0.00 56 1011.8
20260509191628 62 86 1.7 6.1 0.00 0.00 0.00 56 1011.8
20260509191528 62 100 1.7 6.1 0.00 0.00 0.00 56 1011.8
20260509191428 62 107 1.7 6.1 0.00 0.00 0.00 56 1011.8
20260509191328 62 109 1.7 6.1 0.00 0.00 0.00 56 1011.8
20260509191300 62 74 1.7 6.1 0.00 0.00 0.00 56 1011.8
20260509191229 62 96 1.7 6.1 0.00 0.00 0.00 56 1011.7
20260509191129 62 92 0.9 4.3 0.00 0.00 0.00 56 1011.8
20260509191029 63 79 0.9 4.3 0.00 0.00 0.00 55 1011.8
20260509190930 63 71 0.9 4.3 0.00 0.00 0.00 56 1011.8
20260509190829 63 94 0.9 4.3 0.00 0.00 0.00 55 1011.8
20260509190801 63 95 0.9 4.3 0.00 0.00 0.00 56 1011.8
20260509190729 63 134 0.9 4.3 0.00 0.00 0.00 56 1011.8
20260509190629 63 93 0.9 4.3 0.00 0.00 0.00 55 1011.7
20260509190529 63 105 0.9 3.5 0.00 0.00 0.00 55 1011.7
20260509190429 63 115 0.9 3.5 0.00 0.00 0.00 55 1011.7
20260509190329 63 116 0.9 3.5 0.00 0.00 0.00 55 1011.7
20260509190301 63 101 0.9 3.5 0.00 0.00 0.00 55 1011.7
20260509190229 63 100 0.9 3.5 0.00 0.00 0.00 55 1011.7
20260509190129 63 90 0.9 3.5 0.00 0.00 0.00 55 1011.7
20260509190029 63 103 0.9 3.5 0.00 0.00 0.00 55 1011.7
20260509185929 63 95 0.9 3.5 0.00 0.00 0.00 55 1011.7
20260509185829 63 96 0.9 3.5 0.00 0.00 0.00 55 1011.7
20260509185801 63 95 0.9 3.5 0.00 0.00 0.00 55 1011.7
20260509185749 64 97 1.7 4.3 0.00 0.00 0.00 54 1011.7
20260509185745 63 109 0.9 3.5 0.00 0.00 0.00 55 1011.7
20260509185741 63 96 1.7 3.5 0.00 0.00 0.00 55 1011.7
20260509185733 63 104 1.7 3.5 0.00 0.00 0.00 54 1011.8
20260509185515 63 103 1.7 3.5 0.00 0.00 0.00 54 1011.7
20260509185511 64 107 1.7 4.3 0.00 0.00 0.00 54 1011.7
20260509185229 64 82 1.7 4.3 0.00 0.00 0.00 54 1011.7
20260509185130 64 78 1.7 4.3 0.00 0.00 0.00 54 1011.7
20260509185028 64 70 1.7 4.3 0.00 0.00 0.00 54 1011.7
20260509184928 64 92 0.9 4.3 0.00 0.00 0.00 54 1011.8
20260509184828 64 90 0.9 4.3 0.00 0.00 0.00 54 1011.8
20260509184801 64 94 0.9 4.3 0.00 0.00 0.00 54 1011.8
20260509184729 64 94 0.9 4.3 0.00 0.00 0.00 54 1011.8
20260509184629 64 86 0.9 4.3 0.00 0.00 0.00 53 1011.8
20260509184529 64 96 0.9 4.3 0.00 0.00 0.00 54 1011.7
20260509184428 64 94 0.9 4.3 0.00 0.00 0.00 54 1011.7
20260509184328 64 111 0.9 3.5 0.00 0.00 0.00 53 1011.8
20260509184301 64 115 0.9 3.5 0.00 0.00 0.00 53 1011.8
20260509184228 64 111 0.9 3.5 0.00 0.00 0.00 53 1011.8
20260509184128 64 85 0.9 3.5 0.00 0.00 0.00 53 1011.7
20260509184028 64 99 0.9 3.5 0.00 0.00 0.00 53 1011.7
20260509183925 64 98 0.9 3.5 0.00 0.00 0.00 53 1011.7
20260509183823 65 98 0.9 3.5 0.00 0.00 0.00 53 1011.7
20260509183802 65 99 0.9 3.5 0.00 0.00 0.00 53 1011.7
20260509183723 65 99 0.9 3.5 0.00 0.00 0.00 53 1011.7
20260509183626 65 98 0.9 3.5 0.00 0.00 0.00 53 1011.7
20260509183522 65 89 0.9 3.5 0.00 0.00 0.00 52 1011.7
20260509183421 65 90 0.9 3.5 0.00 0.00 0.00 53 1011.7
20260509183321 65 105 0.9 4.3 0.00 0.00 0.00 53 1011.7
20260509183301 65 112 0.9 4.3 0.00 0.00 0.00 52 1011.7
20260509183221 65 105 0.9 4.3 0.00 0.00 0.00 52 1011.6
20260509183123 65 99 0.9 4.3 0.00 0.00 0.00 52 1011.6
20260509183017 65 94 0.9 4.3 0.00 0.00 0.00 52 1011.6
20260509182912 65 107 0.9 4.3 0.00 0.00 0.00 52 1011.6
20260509182811 65 122 0.9 4.3 0.00 0.00 0.00 52 1011.6
20260509182801 65 121 0.9 4.3 0.00 0.00 0.00 52 1011.6
20260509182711 65 123 0.9 4.3 0.00 0.00 0.00 52 1011.6
20260509182611 65 123 0.9 4.3 0.00 0.00 0.00 52 1011.7
20260509182511 65 85 0.9 4.3 0.00 0.00 0.00 52 1011.6
20260509182406 65 72 0.9 4.3 0.00 0.00 0.00 52 1011.7
20260509182307 65 82 0.9 3.5 0.00 0.00 0.00 52 1011.7
20260509182301 65 104 0.9 3.5 0.00 0.00 0.00 52 1011.7
20260509182205 66 99 0.9 3.5 0.00 0.00 0.00 52 1011.7
20260509182105 66 95 0.9 3.5 0.00 0.00 0.00 52 1011.7
20260509182005 66 96 0.9 3.5 0.00 0.00 0.00 52 1011.7
20260509181905 66 96 0.9 3.5 0.00 0.00 0.00 51 1011.7
20260509181805 66 82 0.9 3.5 0.00 0.00 0.00 51 1011.7
20260509181801 66 101 0.9 3.5 0.00 0.00 0.00 51 1011.7
20260509181705 66 101 0.9 3.5 0.00 0.00 0.00 51 1011.7
20260509181606 66 90 0.9 3.5 0.00 0.00 0.00 51 1011.7
20260509181506 66 90 0.9 3.5 0.00 0.00 0.00 51 1011.7
20260509181405 66 88 0.9 3.5 0.00 0.00 0.00 51 1011.6
20260509181300 66 85 0.9 3.5 0.00 0.00 0.00 51 1011.7
20260509181203 66 83 0.9 3.5 0.00 0.00 0.00 51 1011.7
20260509181103 67 83 0.9 3.5 0.00 0.00 0.00 52 1011.7
20260509181001 67 100 0.9 3.5 0.00 0.00 0.00 51 1011.7
20260509180901 67 108 0.9 6.1 0.00 0.00 0.00 51 1011.7
20260509180801 67 90 0.9 6.1 0.00 0.00 0.00 51 1011.6
20260509180701 67 98 1.7 6.1 0.00 0.00 0.00 51 1011.7
20260509180601 67 98 1.7 6.1 0.00 0.00 0.00 51 1011.6
20260509180501 67 94 1.7 6.1 0.00 0.00 0.00 50 1011.7
20260509180401 67 91 1.7 6.1 0.00 0.00 0.00 50 1011.7
20260509180302 67 90 1.7 7.0 0.00 0.00 0.00 50 1011.6
20260509180201 67 131 1.7 7.0 0.00 0.00 0.00 50 1011.6
20260509180001 67 97 1.7 7.0 0.00 0.00 0.00 50 1011.6
20260509175901 67 37 1.7 7.8 0.00 0.00 0.00 49 1011.6
20260509175801 67 112 1.7 7.8 0.00 0.00 0.00 49 1011.6
20260509175701 67 130 1.7 7.8 0.00 0.00 0.00 49 1011.6
20260509175600 67 80 1.7 7.8 0.00 0.00 0.00 49 1011.6
20260509175500 67 96 1.7 7.8 0.00 0.00 0.00 49 1011.6
20260509175400 67 88 1.7 7.8 0.00 0.00 0.00 49 1011.6
20260509175301 67 81 1.7 7.8 0.00 0.00 0.00 49 1011.6
20260509175201 67 91 1.7 7.8 0.00 0.00 0.00 49 1011.6
20260509175101 67 109 1.7 7.8 0.00 0.00 0.00 48 1011.6
20260509175020 67 108 1.7 7.8 0.00 0.00 0.00 48 1011.6
20260509175016 67 108 1.7 6.1 0.00 0.00 0.00 48 1011.6
20260509175012 67 107 1.7 6.1 0.00 0.00 0.00 48 1011.6
20260509174701 68 91 1.7 6.1 0.00 0.00 0.00 48 1011.6
20260509174606 68 106 1.7 6.1 0.00 0.00 0.00 48 1011.6
20260509174501 68 97 1.7 6.1 0.00 0.00 0.00 48 1011.6
20260509174401 68 84 1.7 6.1 0.00 0.00 0.00 48 1011.6
20260509174301 68 114 1.7 6.1 0.00 0.00 0.00 48 1011.6
20260509174200 68 82 1.7 6.1 0.00 0.00 0.00 48 1011.6
20260509174103 68 133 1.7 6.1 0.00 0.00 0.00 48 1011.6
20260509174001 68 73 0.9 6.1 0.00 0.00 0.00 48 1011.6
20260509173901 68 67 0.9 6.1 0.00 0.00 0.00 48 1011.6
20260509173800 68 67 0.9 6.1 0.00 0.00 0.00 48 1011.6
20260509173701 68 67 0.9 6.1 0.00 0.00 0.00 48 1011.6
20260509173601 68 82 0.9 6.1 0.00 0.00 0.00 47 1011.6
20260509173501 68 83 1.7 6.1 0.00 0.00 0.00 47 1011.6
20260509173402 68 82 1.7 6.1 0.00 0.00 0.00 48 1011.6
20260509173301 68 104 1.7 6.1 0.00 0.00 0.00 48 1011.5
20260509173201 68 103 1.7 6.1 0.00 0.00 0.00 47 1011.6
20260509173101 68 79 1.7 6.1 0.00 0.00 0.00 48 1011.5
20260509173001 68 92 1.7 6.1 0.00 0.00 0.00 48 1011.6
20260509172901 68 78 1.7 6.1 0.00 0.00 0.00 48 1011.6
20260509172801 68 38 1.7 5.2 0.00 0.00 0.00 47 1011.6
20260509172701 68 38 1.7 5.2 0.00 0.00 0.00 47 1011.6
20260509172601 68 121 1.7 5.2 0.00 0.00 0.00 47 1011.5
20260509172501 68 107 1.7 7.8 0.00 0.00 0.00 47 1011.5
20260509172401 68 98 1.7 7.8 0.00 0.00 0.00 47 1011.5
20260509172300 68 71 1.7 7.8 0.00 0.00 0.00 47 1011.6
20260509172200 68 57 1.7 7.8 0.00 0.00 0.00 47 1011.6
20260509172100 68 90 1.7 7.8 0.00 0.00 0.00 47 1011.6
20260509172020 68 100 1.7 7.8 0.00 0.00 0.00 47 1011.6
20260509172016 68 88 1.7 7.8 0.00 0.00 0.00 47 1011.6
20260509172012 68 108 1.7 7.8 0.00 0.00 0.00 46 1011.6
20260509171701 68 108 1.7 7.8 0.00 0.00 0.00 47 1011.6
20260509171601 68 73 1.7 7.8 0.00 0.00 0.00 47 1011.6
20260509171500 68 96 1.7 7.0 0.00 0.00 0.00 47 1011.6
20260509171400 68 89 1.7 7.0 0.00 0.00 0.00 47 1011.6
20260509171300 68 90 1.7 7.0 0.00 0.00 0.00 47 1011.6
20260509171201 68 59 0.9 7.0 0.00 0.00 0.00 47 1011.5
20260509171101 69 86 0.9 3.5 0.00 0.00 0.00 46 1011.5
20260509171001 69 94 0.9 3.5 0.00 0.00 0.00 46 1011.6
20260509170901 69 102 0.9 3.5 0.00 0.00 0.00 46 1011.6
20260509170801 69 73 0.9 3.5 0.00 0.00 0.00 46 1011.5
20260509170701 69 68 0.9 3.5 0.00 0.00 0.00 45 1011.6
20260509170601 69 67 0.9 3.5 0.00 0.00 0.00 45 1011.6
20260509170502 69 84 0.9 6.1 0.00 0.00 0.00 45 1011.6
20260509170400 69 91 0.9 6.1 0.00 0.00 0.00 45 1011.5
20260509170301 69 86 0.9 6.1 0.00 0.00 0.00 44 1011.5
20260509170201 69 84 0.9 6.1 0.00 0.00 0.00 45 1011.5
20260509170001 69 101 1.7 6.1 0.00 0.00 0.00 45 1011.5
20260509165901 69 95 1.7 6.1 0.00 0.00 0.00 44 1011.5
20260509165801 69 67 1.7 6.1 0.00 0.00 0.00 45 1011.5
20260509165701 69 48 1.7 6.1 0.00 0.00 0.00 44 1011.5
20260509165600 69 98 1.7 6.1 0.00 0.00 0.00 44 1011.5
20260509165501 69 109 1.7 6.1 0.00 0.00 0.00 44 1011.5
20260509165401 69 85 1.7 7.8 0.00 0.00 0.00 45 1011.5
20260509165301 69 88 2.6 7.8 0.00 0.00 0.00 45 1011.5
20260509165200 69 85 2.6 7.8 0.00 0.00 0.00 44 1011.5
20260509165100 69 87 2.6 7.8 0.00 0.00 0.00 44 1011.6
20260509165001 69 89 2.6 8.7 0.00 0.00 0.00 44 1011.5
20260509164901 69 103 2.6 8.7 0.00 0.00 0.00 44 1011.6
20260509164801 69 86 2.6 8.7 0.00 0.00 0.00 44 1011.6
20260509164701 70 205 2.6 8.7 0.00 0.00 0.00 44 1011.6
20260509164601 70 82 2.6 8.7 0.00 0.00 0.00 44 1011.6
20260509164501 70 98 2.6 8.7 0.00 0.00 0.00 44 1011.6
20260509164401 70 112 1.7 8.7 0.00 0.00 0.00 44 1011.6
20260509164301 70 77 1.7 8.7 0.00 0.00 0.00 45 1011.6
20260509164201 70 98 2.6 8.7 0.00 0.00 0.00 44 1011.6
20260509164100 70 98 2.6 8.7 0.00 0.00 0.00 44 1011.6
20260509164019 70 120 2.6 8.7 0.00 0.00 0.00 45 1011.6
20260509164015 70 109 2.6 8.7 0.00 0.00 0.00 44 1011.6
20260509164011 70 107 2.6 8.7 0.00 0.00 0.00 44 1011.6
20260509163701 70 55 2.6 8.7 0.00 0.00 0.00 45 1011.6
20260509163601 70 96 2.6 8.7 0.00 0.00 0.00 45 1011.6
20260509163520 70 135 2.6 8.7 0.00 0.00 0.00 45 1011.6
20260509163516 70 67 2.6 8.7 0.00 0.00 0.00 45 1011.6
20260509163512 70 71 2.6 8.7 0.00 0.00 0.00 45 1011.6
20260509163201 70 92 2.6 8.7 0.00 0.00 0.00 46 1011.6
20260509163101 70 80 2.6 8.7 0.00 0.00 0.00 45 1011.6
20260509163001 69 58 2.6 7.0 0.00 0.00 0.00 44 1011.6
20260509162901 69 98 1.7 7.0 0.00 0.00 0.00 45 1011.6
20260509162801 69 91 1.7 7.0 0.00 0.00 0.00 44 1011.7
20260509162701 69 91 1.7 7.0 0.00 0.00 0.00 44 1011.7
20260509162601 69 101 1.7 7.0 0.00 0.00 0.00 45 1011.7
20260509162520 69 76 1.7 6.1 0.00 0.00 0.00 45 1011.7
20260509162516 69 103 0.9 6.1 0.00 0.00 0.00 44 1011.8
20260509162512 69 105 1.7 6.1 0.00 0.00 0.00 44 1011.7
20260509162201 69 91 1.7 6.1 0.00 0.00 0.00 44 1011.7
20260509162101 69 76 1.7 6.1 0.00 0.00 0.00 44 1011.8
20260509162001 69 117 1.7 5.2 0.00 0.00 0.00 44 1011.8
20260509161901 70 110 1.7 5.2 0.00 0.00 0.00 44 1011.8
20260509161801 70 111 1.7 6.1 0.00 0.00 0.00 44 1011.7
20260509161700 70 112 1.7 6.1 0.00 0.00 0.00 43 1011.8
20260509161600 70 114 1.7 6.1 0.00 0.00 0.00 43 1011.8
20260509161501 70 78 1.7 6.1 0.00 0.00 0.00 43 1011.8
20260509161401 70 80 1.7 6.1 0.00 0.00 0.00 43 1011.8
20260509161300 70 93 1.7 6.1 0.00 0.00 0.00 43 1011.8
20260509161200 70 99 1.7 6.1 0.00 0.00 0.00 43 1011.8
20260509161100 70 114 1.7 7.8 0.00 0.00 0.00 42 1011.8
20260509161000 70 42 1.7 7.8 0.00 0.00 0.00 42 1011.8
20260509160901 70 84 1.7 7.8 0.00 0.00 0.00 43 1011.8
20260509160801 70 126 1.7 7.8 0.00 0.00 0.00 42 1011.9
20260509160701 71 85 1.7 7.8 0.00 0.00 0.00 43 1011.9
20260509160601 71 98 1.7 7.8 0.00 0.00 0.00 44 1011.9
20260509160526 71 100 1.7 7.8 0.00 0.00 0.00 42 1011.9
20260509160516 71 99 1.7 7.8 0.00 0.00 0.00 43 1011.8
20260509160512 71 103 1.7 7.8 0.00 0.00 0.00 43 1011.9
20260509160255 71 104 1.7 7.8 0.00 0.00 0.00 42 1011.9
20260509160155 71 92 1.7 7.8 0.00 0.00 0.00 42 1011.8
20260509160055 71 116 1.7 7.0 0.00 0.00 0.00 42 1011.9
20260509155956 71 111 1.7 7.0 0.00 0.00 0.00 42 1011.9
20260509155855 71 129 1.7 7.0 0.00 0.00 0.00 42 1011.9
20260509155801 71 99 1.7 7.0 0.00 0.00 0.00 42 1011.9
20260509155749 71 98 1.7 7.0 0.00 0.00 0.00 42 1011.9
20260509155648 71 93 2.6 7.0 0.00 0.00 0.00 42 1011.9
20260509155548 71 101 2.6 7.8 0.00 0.00 0.00 43 1011.9
20260509155449 71 97 2.6 7.8 0.00 0.00 0.00 42 1011.9
20260509155349 71 97 2.6 7.8 0.00 0.00 0.00 42 1011.9
20260509155301 71 75 2.6 7.8 0.00 0.00 0.00 42 1011.9
20260509155245 71 72 2.6 7.8 0.00 0.00 0.00 42 1011.9
20260509155145 71 72 2.6 7.8 0.00 0.00 0.00 42 1012.0
20260509155044 71 93 2.6 7.8 0.00 0.00 0.00 42 1011.9
20260509154945 71 79 2.6 7.8 0.00 0.00 0.00 41 1012.0
20260509154843 71 101 3.5 7.8 0.00 0.00 0.00 41 1011.9
20260509154800 72 114 3.5 7.8 0.00 0.00 0.00 41 1011.9
20260509154741 72 116 2.6 7.8 0.00 0.00 0.00 41 1011.9
20260509154641 72 86 2.6 7.8 0.00 0.00 0.00 41 1011.9
20260509154541 72 70 2.6 7.8 0.00 0.00 0.00 41 1011.9
20260509154440 72 73 2.6 7.8 0.00 0.00 0.00 41 1011.9
20260509154340 72 113 2.6 7.8 0.00 0.00 0.00 42 1011.9
20260509154301 72 69 2.6 7.8 0.00 0.00 0.00 41 1011.9
20260509154241 72 107 2.6 7.8 0.00 0.00 0.00 41 1011.9
20260509154141 72 55 1.7 7.8 0.00 0.00 0.00 41 1011.9
20260509154041 72 75 1.7 7.8 0.00 0.00 0.00 42 1011.9
20260509153940 72 128 1.7 7.8 0.00 0.00 0.00 41 1011.9
20260509153840 72 82 1.7 7.8 0.00 0.00 0.00 41 1011.9
20260509153801 72 84 1.7 7.8 0.00 0.00 0.00 42 1011.9
20260509153741 72 94 1.7 7.8 0.00 0.00 0.00 42 1011.9
20260509153641 72 57 1.7 7.8 0.00 0.00 0.00 43 1011.9
20260509153541 72 75 1.7 7.8 0.00 0.00 0.00 42 1012.0
20260509153440 72 109 1.7 5.2 0.00 0.00 0.00 41 1011.9
20260509153340 72 109 1.7 5.2 0.00 0.00 0.00 41 1012.0
20260509153301 73 90 1.7 6.1 0.00 0.00 0.00 41 1012.0
20260509153241 73 90 2.6 6.1 0.00 0.00 0.00 40 1012.0
20260509153141 73 90 2.6 7.0 0.00 0.00 0.00 40 1012.0
20260509153037 73 100 2.6 7.8 0.00 0.00 0.00 40 1012.0
20260509152936 73 111 2.6 8.7 0.00 0.00 0.00 40 1012.0
20260509152836 73 98 2.6 8.7 0.00 0.00 0.00 40 1012.1
20260509152801 73 98 2.6 8.7 0.00 0.00 0.00 40 1012.1
20260509152736 73 89 2.6 8.7 0.00 0.00 0.00 40 1012.1
20260509152634 73 67 2.6 8.7 0.00 0.00 0.00 42 1012.1
20260509152533 73 74 2.6 8.7 0.00 0.00 0.00 42 1012.1
20260509152433 73 77 2.6 8.7 0.00 0.00 0.00 42 1012.1
20260509152333 73 71 2.6 8.7 0.00 0.00 0.00 40 1012.1
20260509152301 73 69 2.6 8.7 0.00 0.00 0.00 40 1012.1
20260509152230 73 31 2.6 8.7 0.00 0.00 0.00 41 1012.1
20260509152130 73 82 2.6 8.7 0.00 0.00 0.00 41 1012.1
20260509152030 73 113 1.7 8.7 0.00 0.00 0.00 41 1012.1
20260509151930 73 82 1.7 7.0 0.00 0.00 0.00 40 1012.1
20260509151831 73 82 1.7 7.0 0.00 0.00 0.00 41 1012.1
20260509151801 73 76 1.7 7.0 0.00 0.00 0.00 41 1012.1
20260509151731 73 56 1.7 7.0 0.00 0.00 0.00 42 1012.1
20260509151631 73 9 1.7 7.0 0.00 0.00 0.00 42 1012.1
20260509151531 73 35 1.7 7.0 0.00 0.00 0.00 41 1012.3
20260509151431 73 59 1.7 7.0 0.00 0.00 0.00 42 1012.3
20260509151330 73 51 1.7 7.0 0.00 0.00 0.00 42 1012.1
20260509151301 73 323 1.7 7.0 0.00 0.00 0.00 43 1012.1
20260509151228 73 321 1.7 7.0 0.00 0.00 0.00 42 1012.3
20260509151129 73 108 0.9 7.0 0.00 0.00 0.00 41 1012.1
20260509151029 73 126 1.7 3.5 0.00 0.00 0.00 42 1012.1
20260509150929 73 155 1.7 3.5 0.00 0.00 0.00 40 1012.1
20260509150828 72 242 1.7 3.5 0.00 0.00 0.00 42 1012.3
20260509150801 72 242 1.7 3.5 0.00 0.00 0.00 40 1012.3
20260509150727 72 242 1.7 3.5 0.00 0.00 0.00 40 1012.1
20260509150627 72 236 1.7 3.5 0.00 0.00 0.00 40 1012.1
20260509150527 72 226 1.7 3.5 0.00 0.00 0.00 42 1012.1
20260509150427 72 226 1.7 3.5 0.00 0.00 0.00 40 1012.1
20260509150327 72 225 1.7 3.5 0.00 0.00 0.00 40 1012.1
20260509150301 72 225 1.7 3.5 0.00 0.00 0.00 41 1012.1
20260509150224 71 225 1.7 3.5 0.00 0.00 0.00 41 1012.1
20260509150123 71 225 1.7 4.3 0.00 0.00 0.00 42 1012.1
20260509150023 71 226 1.7 4.3 0.00 0.00 0.00 41 1012.3
20260509145921 71 222 1.7 5.2 0.00 0.00 0.00 41 1012.3
20260509145820 71 216 1.7 5.2 0.00 0.00 0.00 41 1012.3
20260509145800 71 215 1.7 5.2 0.00 0.00 0.00 41 1012.3
20260509145718 71 215 1.7 5.2 0.00 0.00 0.00 41 1012.4
20260509145616 71 236 1.7 5.2 0.00 0.00 0.00 40 1012.4
20260509145524 71 236 1.7 5.2 0.00 0.00 0.00 42 1012.4
20260509145516 71 236 1.7 5.2 0.00 0.00 0.00 43 1012.4
20260509145512 71 236 1.7 5.2 0.00 0.00 0.00 42 1012.4
20260509145208 71 236 1.7 5.2 0.00 0.00 0.00 43 1012.4
20260509145109 71 223 1.7 5.2 0.00 0.00 0.00 43 1012.4
20260509145025 71 190 1.7 7.0 0.00 0.00 0.00 40 1012.4
20260509145017 71 155 1.7 7.0 0.00 0.00 0.00 43 1012.4
20260509145013 71 155 2.6 7.0 0.00 0.00 0.00 42 1012.4
20260509144703 71 156 2.6 7.8 0.00 0.00 0.00 43 1012.4
20260509144603 71 140 2.6 7.8 0.00 0.00 0.00 40 1012.4
20260509144524 71 130 3.5 7.8 0.00 0.00 0.00 40 1012.3
20260509144516 71 130 3.5 7.8 0.00 0.00 0.00 41 1012.4
20260509144512 71 128 3.5 7.8 0.00 0.00 0.00 43 1012.4
20260509144201 71 128 2.6 7.8 0.00 0.00 0.00 40 1012.5
20260509144101 71 134 2.6 7.8 0.00 0.00 0.00 41 1012.4
20260509144001 71 137 2.6 7.8 0.00 0.00 0.00 41 1012.4
20260509143901 71 163 1.7 7.8 0.00 0.00 0.00 40 1012.5
20260509143801 72 132 1.7 7.8 0.00 0.00 0.00 41 1012.4
20260509143700 72 139 0.9 6.1 0.00 0.00 0.00 40 1012.4
20260509143601 72 103 0.9 6.1 0.00 0.00 0.00 41 1012.5
20260509143530 71 82 0.9 2.6 0.00 0.00 0.00 43 1012.5
20260509143501 72 74 0.9 2.6 0.00 0.00 0.00 41 1012.5
20260509143401 71 74 0.9 2.6 0.00 0.00 0.00 42 1012.5
20260509143330 71 81 0.9 4.3 0.00 0.00 0.00 41 1012.5
20260509143318 71 81 0.9 2.6 0.00 0.00 0.00 42 1012.5
20260509143314 71 82 0.9 2.6 0.00 0.00 0.00 43 1012.5
20260509143000 71 81 0.9 4.3 0.00 0.00 0.00 42 1012.6
20260509142901 71 82 1.7 7.0 0.00 0.00 0.00 43 1012.6
20260509142800 71 81 1.7 7.0 0.00 0.00 0.00 42 1012.6
20260509142748 71 97 1.7 7.0 0.00 0.00 0.00 44 1012.6
20260509142743 71 81 1.7 7.0 0.00 0.00 0.00 43 1012.6
20260509142739 71 81 1.7 7.0 0.00 0.00 0.00 44 1012.6
20260509142524 71 72 1.7 7.0 0.00 0.00 0.00 43 1012.6
20260509142516 71 75 1.7 7.0 0.00 0.00 0.00 43 1012.6
20260509142512 71 97 1.7 7.0 0.00 0.00 0.00 44 1012.6
20260509142200 71 97 1.7 7.0 0.00 0.00 0.00 43 1012.6
20260509142100 71 73 1.7 7.0 0.00 0.00 0.00 43 1012.6
20260509142001 71 67 0.9 7.0 0.00 0.00 0.00 43 1012.6
20260509141901 71 75 0.9 7.0 0.00 0.00 0.00 43 1012.6
20260509141801 71 55 0.9 2.6 0.00 0.00 0.00 43 1012.5
20260509141700 71 103 0.9 2.6 0.00 0.00 0.00 44 1012.6
20260509141600 71 95 0.9 2.6 0.00 0.00 0.00 42 1012.6
20260509141500 71 108 0.9 2.6 0.00 0.00 0.00 42 1012.6
20260509141400 72 109 0.9 2.6 0.00 0.00 0.00 41 1012.6
20260509141301 72 109 0.9 2.6 0.00 0.00 0.00 41 1012.6
20260509141201 72 109 0.9 2.6 0.00 0.00 0.00 42 1012.6
20260509141100 72 109 0.9 3.5 0.00 0.00 0.00 42 1012.6
20260509141002 72 109 0.9 3.5 0.00 0.00 0.00 43 1012.6
20260509140901 72 70 0.9 3.5 0.00 0.00 0.00 43 1012.7
20260509140801 72 71 1.7 5.2 0.00 0.00 0.00 42 1012.7
20260509140701 72 71 1.7 5.2 0.00 0.00 0.00 42 1012.7
20260509140601 71 71 1.7 5.2 0.00 0.00 0.00 42 1012.7
20260509140501 71 71 1.7 5.2 0.00 0.00 0.00 43 1012.7
20260509140401 71 77 1.7 5.2 0.00 0.00 0.00 44 1012.7
20260509140301 71 77 1.7 5.2 0.00 0.00 0.00 43 1012.7
20260509140201 71 80 1.7 5.2 0.00 0.00 0.00 44 1012.8
20260509140001 71 42 1.7 5.2 0.00 0.00 0.00 44 1012.8
20260509135901 71 42 1.7 5.2 0.00 0.00 0.00 46 1012.8
20260509135801 70 46 1.7 5.2 0.00 0.00 0.00 47 1012.8
20260509135701 70 34 1.7 5.2 0.00 0.00 0.00 48 1012.8
20260509135601 70 86 1.7 5.2 0.00 0.00 0.00 49 1012.8
20260509135501 70 82 1.7 5.2 0.00 0.00 0.00 49 1012.8
20260509135401 70 67 1.7 6.1 0.00 0.00 0.00 46 1012.8
20260509135300 70 98 1.7 6.1 0.00 0.00 0.00 45 1012.8
20260509135200 70 99 1.7 6.1 0.00 0.00 0.00 45 1012.9
20260509135100 70 68 2.6 6.1 0.00 0.00 0.00 46 1012.8
20260509135000 70 75 2.6 6.1 0.00 0.00 0.00 47 1012.8
20260509134900 70 120 2.6 6.1 0.00 0.00 0.00 46 1012.8
20260509134801 70 117 2.6 6.1 0.00 0.00 0.00 46 1012.9
20260509134701 70 90 2.6 6.1 0.00 0.00 0.00 45 1012.9
20260509134601 70 90 2.6 6.1 0.00 0.00 0.00 45 1012.9
20260509134500 70 82 2.6 6.1 0.00 0.00 0.00 44 1012.9
20260509134400 71 109 2.6 7.0 0.00 0.00 0.00 44 1012.9
20260509134300 71 76 2.6 7.0 0.00 0.00 0.00 45 1012.9
20260509134200 71 67 2.6 7.0 0.00 0.00 0.00 44 1012.9
20260509134101 71 87 2.6 7.0 0.00 0.00 0.00 44 1012.9
20260509134001 71 107 2.6 7.0 0.00 0.00 0.00 43 1013.0
20260509133900 71 101 1.7 7.0 0.00 0.00 0.00 43 1013.0
20260509133800 71 84 1.7 7.0 0.00 0.00 0.00 44 1013.0
20260509133701 72 84 1.7 7.8 0.00 0.00 0.00 44 1013.0
20260509133601 72 116 1.7 7.8 0.00 0.00 0.00 44 1013.0
20260509133501 72 82 1.7 7.8 0.00 0.00 0.00 43 1012.9
20260509133406 72 71 1.7 7.8 0.00 0.00 0.00 43 1013.0
20260509133301 72 98 1.7 7.8 0.00 0.00 0.00 44 1013.0
20260509133201 73 82 1.7 7.8 0.00 0.00 0.00 43 1013.0
20260509133101 73 86 2.6 7.8 0.00 0.00 0.00 43 1012.9
20260509133001 73 92 2.6 7.8 0.00 0.00 0.00 42 1013.0
20260509132903 73 104 2.6 7.8 0.00 0.00 0.00 40 1013.0
20260509132801 73 115 2.6 7.8 0.00 0.00 0.00 40 1013.0
20260509132701 74 153 2.6 7.8 0.00 0.00 0.00 40 1013.0
20260509132601 74 76 2.6 7.8 0.00 0.00 0.00 40 1013.0
20260509132500 74 78 2.6 7.8 0.00 0.00 0.00 40 1013.1
20260509132401 74 108 2.6 7.8 0.00 0.00 0.00 41 1013.1
20260509132300 74 88 2.6 7.8 0.00 0.00 0.00 40 1013.1
20260509132200 74 107 2.6 7.8 0.00 0.00 0.00 41 1013.1
20260509132101 74 74 2.6 7.8 0.00 0.00 0.00 40 1013.1
20260509132001 74 27 2.6 7.8 0.00 0.00 0.00 40 1013.1
20260509131901 74 355 2.6 7.8 0.00 0.00 0.00 39 1013.1
20260509131801 74 77 2.6 7.8 0.00 0.00 0.00 41 1013.0
20260509131701 73 88 2.6 7.8 0.00 0.00 0.00 41 1013.1
20260509131601 73 105 2.6 7.8 0.00 0.00 0.00 41 1013.1
20260509131501 73 71 2.6 7.8 0.00 0.00 0.00 42 1013.1
20260509131401 73 97 2.6 7.8 0.00 0.00 0.00 43 1013.1
20260509131302 73 59 2.6 7.8 0.00 0.00 0.00 44 1013.1
20260509131200 72 59 2.6 7.8 0.00 0.00 0.00 42 1013.1
20260509131101 72 55 1.7 7.0 0.00 0.00 0.00 42 1013.1
20260509131001 72 74 1.7 7.0 0.00 0.00 0.00 44 1013.1
20260509130900 72 84 1.7 7.0 0.00 0.00 0.00 43 1013.2
20260509130800 72 94 1.7 7.0 0.00 0.00 0.00 45 1013.1
20260509130700 72 76 1.7 7.0 0.00 0.00 0.00 44 1013.2
20260509130601 71 113 0.9 4.3 0.00 0.00 0.00 43 1013.2
20260509130501 71 117 0.9 4.3 0.00 0.00 0.00 44 1013.2
20260509130401 71 233 0.9 4.3 0.00 0.00 0.00 43 1013.2
20260509130301 71 236 0.9 4.3 0.00 0.00 0.00 44 1013.2
20260509130200 71 336 0.9 3.5 0.00 0.00 0.00 45 1013.2
20260509130100 71 336 0.9 3.5 0.00 0.00 0.00 44 1013.2
20260509130000 70 336 1.7 3.5 0.00 0.00 0.00 46 1013.3
20260509125900 70 336 1.7 3.5 0.00 0.00 0.00 45 1013.3
20260509125801 70 336 1.7 4.3 0.00 0.00 0.00 46 1013.2
20260509125700 70 336 1.7 4.3 0.00 0.00 0.00 44 1013.3
20260509125600 70 346 1.7 4.3 0.00 0.00 0.00 43 1013.3
20260509125500 70 225 2.6 6.1 0.00 0.00 0.00 43 1013.3
20260509125400 70 222 2.6 6.1 0.00 0.00 0.00 43 1013.3
20260509125300 70 222 2.6 7.8 0.00 0.00 0.00 43 1013.3
20260509125200 70 198 3.5 9.6 0.00 0.00 0.00 43 1013.3
20260509125100 70 198 3.5 9.6 0.00 0.00 0.00 41 1013.3
20260509125025 70 194 3.5 9.6 0.00 0.00 0.00 45 1013.4
20260509125021 70 180 4.3 9.6 0.00 0.00 0.00 43 1013.4
20260509125012 70 150 4.3 9.6 0.00 0.00 0.00 44 1013.4
20260509124701 70 139 4.3 9.6 0.00 0.00 0.00 42 1013.4
20260509124602 71 129 3.5 9.6 0.00 0.00 0.00 42 1013.4
20260509124502 71 121 3.5 9.6 0.00 0.00 0.00 43 1013.4
20260509124401 71 117 3.5 9.6 0.00 0.00 0.00 44 1013.4
20260509124301 71 140 2.6 9.6 0.00 0.00 0.00 44 1013.4
20260509124201 71 111 2.6 7.8 0.00 0.00 0.00 44 1013.4
20260509124101 71 133 2.6 7.8 0.00 0.00 0.00 45 1013.4
20260509124001 71 178 2.6 7.8 0.00 0.00 0.00 45 1013.4
20260509123901 71 159 2.6 7.0 0.00 0.00 0.00 45 1013.4
20260509123801 71 140 2.6 7.0 0.00 0.00 0.00 46 1013.4
20260509123701 71 146 2.6 7.0 0.00 0.00 0.00 46 1013.5
20260509123601 71 139 2.6 7.0 0.00 0.00 0.00 46 1013.5
20260509123501 71 139 2.6 7.0 0.00 0.00 0.00 44 1013.5
20260509123401 70 139 3.5 7.0 0.00 0.00 0.00 44 1013.5
20260509123300 70 139 3.5 7.0 0.00 0.00 0.00 44 1013.5
20260509123200 71 100 3.5 7.0 0.00 0.00 0.00 43 1013.5
20260509123101 71 142 3.5 7.0 0.00 0.00 0.00 44 1013.5
20260509123001 70 168 3.5 7.0 0.00 0.00 0.00 44 1013.5
20260509122901 70 156 2.6 7.8 0.00 0.00 0.00 45 1013.6
20260509122800 71 202 2.6 7.8 0.00 0.00 0.00 44 1013.5
20260509122700 71 118 2.6 7.8 0.00 0.00 0.00 44 1013.6
20260509122600 71 119 2.6 7.8 0.00 0.00 0.00 46 1013.5
20260509122458 71 159 2.6 7.8 0.00 0.00 0.00 44 1013.6
20260509122358 71 92 2.6 10.4 0.00 0.00 0.00 44 1013.6
20260509122305 71 150 2.6 10.4 0.00 0.00 0.00 45 1013.6
20260509122258 71 150 2.6 10.4 0.00 0.00 0.00 45 1013.6
20260509122158 71 106 2.6 10.4 0.00 0.00 0.00 45 1013.6
20260509122058 71 98 2.6 10.4 0.00 0.00 0.00 47 1013.6
20260509122026 71 334 2.6 10.4 0.00 0.00 0.00 48 1013.5
20260509122020 71 80 2.6 10.4 0.00 0.00 0.00 47 1013.6
20260509122016 71 47 2.6 10.4 0.00 0.00 0.00 47 1013.5
20260509121753 71 334 2.6 10.4 0.00 0.00 0.00 48 1013.6
20260509121653 71 322 2.6 10.4 0.00 0.00 0.00 48 1013.6
20260509121551 70 321 2.6 10.4 0.00 0.00 0.00 50 1013.6
20260509121527 70 86 1.7 5.2 0.00 0.00 0.00 49 1013.6
20260509121521 70 25 1.7 10.4 0.00 0.00 0.00 49 1013.7
20260509121517 70 48 1.7 8.7 0.00 0.00 0.00 48 1013.6
20260509121246 70 5 1.7 5.2 0.00 0.00 0.00 49 1013.6
20260509121146 69 91 1.7 5.2 0.00 0.00 0.00 47 1013.6
20260509121048 69 87 1.7 5.2 0.00 0.00 0.00 46 1013.6
20260509120943 69 55 1.7 6.1 0.00 0.00 0.00 47 1013.7
20260509120841 69 55 1.7 6.1 0.00 0.00 0.00 48 1013.7
20260509120802 69 55 1.7 6.1 0.00 0.00 0.00 48 1013.7
20260509120740 69 55 1.7 6.1 0.00 0.00 0.00 49 1013.7
20260509120640 69 105 1.7 6.1 0.00 0.00 0.00 47 1013.7
20260509120540 69 345 1.7 6.1 0.00 0.00 0.00 46 1013.8
20260509120434 69 65 1.7 6.1 0.00 0.00 0.00 47 1013.8
20260509120335 69 71 1.7 6.1 0.00 0.00 0.00 47 1013.8
20260509120300 69 70 1.7 6.1 0.00 0.00 0.00 47 1013.8
20260509120234 69 103 1.7 6.1 0.00 0.00 0.00 48 1013.8
20260509120134 68 109 1.7 6.1 0.00 0.00 0.00 48 1013.7
20260509120034 68 66 1.7 6.1 0.00 0.00 0.00 47 1013.8
20260509115935 68 136 1.7 6.1 0.00 0.00 0.00 47 1013.8
20260509115835 68 93 1.7 6.1 0.00 0.00 0.00 47 1013.8
20260509115801 69 65 1.7 6.1 0.00 0.00 0.00 46 1013.8
20260509115735 69 84 1.7 6.1 0.00 0.00 0.00 47 1013.8
20260509115635 69 111 1.7 6.1 0.00 0.00 0.00 46 1013.8
20260509115534 69 107 1.7 6.1 0.00 0.00 0.00 47 1013.8
20260509115432 69 86 1.7 6.1 0.00 0.00 0.00 48 1013.8
20260509115332 69 87 1.7 6.1 0.00 0.00 0.00 48 1013.8
20260509115301 69 76 1.7 6.1 0.00 0.00 0.00 47 1013.8
20260509115232 69 62 1.7 6.1 0.00 0.00 0.00 47 1013.8
20260509115132 69 86 1.7 5.2 0.00 0.00 0.00 48 1013.8
20260509115033 69 94 1.7 7.0 0.00 0.00 0.00 47 1013.8
20260509114931 69 95 1.7 7.0 0.00 0.00 0.00 48 1013.9
20260509114830 69 32 1.7 7.0 0.00 0.00 0.00 47 1013.8
20260509114800 69 31 1.7 7.0 0.00 0.00 0.00 49 1013.8
20260509114730 69 18 1.7 7.0 0.00 0.00 0.00 49 1013.9
20260509114630 69 111 1.7 7.0 0.00 0.00 0.00 49 1013.9
20260509114530 69 78 1.7 7.0 0.00 0.00 0.00 49 1013.9
20260509114430 69 107 1.7 7.0 0.00 0.00 0.00 49 1013.9
20260509114301 68 17 1.7 7.0 0.00 0.00 0.00 48 1013.9
20260509114229 68 17 1.7 7.0 0.00 0.00 0.00 48 1013.9
20260509114129 68 17 1.7 7.0 0.00 0.00 0.00 49 1013.9
20260509114029 68 17 1.7 6.1 0.00 0.00 0.00 48 1013.9
20260509113929 68 72 1.7 6.1 0.00 0.00 0.00 47 1013.9
20260509113829 68 91 1.7 6.1 0.00 0.00 0.00 47 1013.9
20260509113803 68 96 1.7 6.1 0.00 0.00 0.00 48 1013.9
20260509113729 68 19 1.7 6.1 0.00 0.00 0.00 48 1013.9
20260509113629 68 70 1.7 6.1 0.00 0.00 0.00 48 1014.1
20260509113529 68 95 1.7 6.1 0.00 0.00 0.00 48 1014.1
20260509113429 68 102 1.7 6.1 0.00 0.00 0.00 48 1014.1
20260509113329 68 100 1.7 6.1 0.00 0.00 0.00 48 1014.1
20260509113300 68 86 1.7 6.1 0.00 0.00 0.00 48 1014.1
20260509113229 68 182 1.7 6.1 0.00 0.00 0.00 48 1014.1
20260509113129 68 107 1.7 6.1 0.00 0.00 0.00 47 1014.1
20260509113029 69 111 1.7 6.1 0.00 0.00 0.00 47 1014.1
20260509112928 69 103 1.7 6.1 0.00 0.00 0.00 48 1014.1
20260509112828 69 107 1.7 6.1 0.00 0.00 0.00 48 1014.1
20260509112800 69 124 1.7 6.1 0.00 0.00 0.00 48 1014.1
20260509112729 69 173 1.7 5.2 0.00 0.00 0.00 47 1014.1
20260509112629 69 71 1.7 5.2 0.00 0.00 0.00 47 1014.1
20260509112527 69 71 1.7 7.0 0.00 0.00 0.00 47 1014.2
20260509112427 69 67 1.7 7.0 0.00 0.00 0.00 47 1014.1
20260509112326 69 80 1.7 7.0 0.00 0.00 0.00 47 1014.1
20260509112307 69 79 1.7 7.0 0.00 0.00 0.00 47 1014.1
20260509112226 69 105 1.7 7.0 0.00 0.00 0.00 49 1014.1
20260509112124 69 103 1.7 7.0 0.00 0.00 0.00 46 1014.2
20260509112028 69 96 1.7 7.0 0.00 0.00 0.00 49 1014.2
20260509112024 69 76 1.7 7.0 0.00 0.00 0.00 49 1014.2
20260509112019 69 100 1.7 7.0 0.00 0.00 0.00 47 1014.2
20260509112015 69 82 1.7 7.0 0.00 0.00 0.00 49 1014.2
20260509111718 68 83 1.7 7.0 0.00 0.00 0.00 49 1014.2
20260509111618 69 84 1.7 7.0 0.00 0.00 0.00 50 1014.2
20260509111512 68 92 1.7 7.0 0.00 0.00 0.00 48 1014.2
20260509111412 68 65 1.7 7.0 0.00 0.00 0.00 48 1014.2
20260509111313 68 98 1.7 7.0 0.00 0.00 0.00 47 1014.2
20260509111301 68 114 1.7 7.0 0.00 0.00 0.00 47 1014.2
20260509111212 68 92 1.7 7.0 0.00 0.00 0.00 49 1014.2
20260509111111 68 76 1.7 6.1 0.00 0.00 0.00 49 1014.3
20260509111006 68 87 0.9 6.1 0.00 0.00 0.00 49 1014.2
20260509110906 68 121 0.9 3.5 0.00 0.00 0.00 49 1014.3
20260509110807 68 100 0.9 3.5 0.00 0.00 0.00 48 1014.2
20260509110803 68 98 0.9 3.5 0.00 0.00 0.00 48 1014.2
20260509110706 68 99 0.9 3.5 0.00 0.00 0.00 47 1014.3
20260509110606 68 71 1.7 8.7 0.00 0.00 0.00 47 1014.3
20260509110505 68 143 1.7 8.7 0.00 0.00 0.00 46 1014.3
20260509110404 69 96 1.7 8.7 0.00 0.00 0.00 48 1014.3
20260509110301 69 97 1.7 8.7 0.00 0.00 0.00 47 1014.3
20260509110204 69 103 1.7 8.7 0.00 0.00 0.00 45 1014.3
20260509110104 69 104 1.7 8.7 0.00 0.00 0.00 45 1014.3
20260509110004 69 104 1.7 8.7 0.00 0.00 0.00 45 1014.4
20260509105905 69 97 1.7 8.7 0.00 0.00 0.00 46 1014.3
20260509105802 69 139 1.7 8.7 0.00 0.00 0.00 44 1014.4
20260509105704 69 125 1.7 8.7 0.00 0.00 0.00 47 1014.4
20260509105604 69 123 1.7 7.0 0.00 0.00 0.00 47 1014.4
20260509105504 69 52 1.7 7.0 0.00 0.00 0.00 46 1014.4
20260509105404 69 51 2.6 7.8 0.00 0.00 0.00 46 1014.4
20260509105305 68 53 2.6 7.8 0.00 0.00 0.00 46 1014.4
20260509105202 68 95 2.6 7.8 0.00 0.00 0.00 48 1014.4
20260509105102 68 96 3.5 7.8 0.00 0.00 0.00 47 1014.4
20260509105001 68 118 3.5 8.7 0.00 0.00 0.00 47 1014.4
20260509104901 68 117 3.5 8.7 0.00 0.00 0.00 48 1014.4
20260509104804 68 82 4.3 9.6 0.00 0.00 0.00 47 1014.4
20260509104800 68 82 4.3 9.6 0.00 0.00 0.00 47 1014.4
20260509104700 68 109 5.2 9.6 0.00 0.00 0.00 49 1014.5
20260509104600 68 112 5.2 9.6 0.00 0.00 0.00 48 1014.5
20260509104500 68 123 5.2 9.6 0.00 0.00 0.00 47 1014.5
20260509104359 68 105 4.3 9.6 0.00 0.00 0.00 47 1014.5
20260509104301 68 142 4.3 9.6 0.00 0.00 0.00 48 1014.5
20260509104254 68 140 4.3 9.6 0.00 0.00 0.00 48 1014.5
20260509104154 68 148 4.3 9.6 0.00 0.00 0.00 47 1014.5
20260509104054 68 133 4.3 9.6 0.00 0.00 0.00 46 1014.5
20260509103954 68 150 3.5 9.6 0.00 0.00 0.00 48 1014.5
20260509103854 67 134 2.6 9.6 0.00 0.00 0.00 48 1014.6
20260509103801 67 132 2.6 9.6 0.00 0.00 0.00 49 1014.6
20260509103750 67 136 1.7 9.6 0.00 0.00 0.00 49 1014.6
20260509103650 67 124 1.7 7.8 0.00 0.00 0.00 49 1014.6
20260509103550 67 146 1.7 7.0 0.00 0.00 0.00 48 1014.6
20260509103450 67 124 1.7 7.0 0.00 0.00 0.00 46 1014.7
20260509103347 67 96 1.7 7.0 0.00 0.00 0.00 48 1014.7
20260509103301 67 96 1.7 7.0 0.00 0.00 0.00 47 1014.7
20260509103244 67 96 1.7 7.0 0.00 0.00 0.00 47 1014.7
20260509103142 67 96 1.7 7.0 0.00 0.00 0.00 46 1014.7
20260509103042 67 91 2.6 7.0 0.00 0.00 0.00 47 1014.7
20260509102942 67 91 2.6 7.0 0.00 0.00 0.00 47 1014.7
20260509102842 67 92 2.6 7.0 0.00 0.00 0.00 48 1014.7
20260509102800 67 84 2.6 7.0 0.00 0.00 0.00 47 1014.7
20260509102736 67 141 2.6 7.8 0.00 0.00 0.00 47 1014.7
20260509102636 67 71 2.6 7.8 0.00 0.00 0.00 48 1014.7
20260509102536 67 61 2.6 7.8 0.00 0.00 0.00 47 1014.8
20260509102436 67 144 2.6 7.8 0.00 0.00 0.00 47 1014.7
20260509102335 67 147 2.6 7.8 0.00 0.00 0.00 48 1014.8
20260509102301 67 109 2.6 7.8 0.00 0.00 0.00 48 1014.8
20260509102234 67 57 2.6 7.8 0.00 0.00 0.00 47 1014.8
20260509102130 67 95 2.6 7.8 0.00 0.00 0.00 49 1014.8
20260509102030 67 146 1.7 7.8 0.00 0.00 0.00 48 1014.8
20260509101930 67 94 1.7 7.8 0.00 0.00 0.00 47 1014.8
20260509101830 67 109 1.7 7.8 0.00 0.00 0.00 46 1014.8
20260509101801 67 59 1.7 7.8 0.00 0.00 0.00 46 1014.8
20260509101728 67 65 0.9 7.8 0.00 0.00 0.00 48 1014.8
20260509101628 67 135 0.9 7.8 0.00 0.00 0.00 48 1014.8
20260509101526 67 131 1.7 5.2 0.00 0.00 0.00 50 1014.8
20260509101426 67 109 1.7 6.1 0.00 0.00 0.00 50 1014.8
20260509101324 67 115 1.7 6.1 0.00 0.00 0.00 51 1014.8
20260509101302 67 107 1.7 6.1 0.00 0.00 0.00 51 1014.8
20260509101218 67 74 1.7 6.1 0.00 0.00 0.00 50 1014.8
20260509101118 67 82 1.7 6.1 0.00 0.00 0.00 48 1014.8
20260509101018 67 69 1.7 6.1 0.00 0.00 0.00 50 1014.8
20260509100918 67 105 1.7 6.1 0.00 0.00 0.00 49 1014.9
20260509100818 67 107 1.7 6.1 0.00 0.00 0.00 50 1014.9
20260509100801 67 108 1.7 6.1 0.00 0.00 0.00 50 1014.9
20260509100714 67 108 1.7 6.1 0.00 0.00 0.00 49 1014.9
20260509100612 67 99 1.7 6.1 0.00 0.00 0.00 52 1014.9
20260509100512 66 116 1.7 5.2 0.00 0.00 0.00 50 1015.0
20260509100412 66 140 1.7 5.2 0.00 0.00 0.00 51 1014.9
20260509100300 66 180 1.7 5.2 0.00 0.00 0.00 50 1014.9
20260509100207 66 198 1.7 5.2 0.00 0.00 0.00 51 1014.9
20260509100108 66 142 1.7 5.2 0.00 0.00 0.00 52 1014.9
20260509100029 66 148 1.7 5.2 0.00 0.00 0.00 53 1014.9
20260509100021 66 142 1.7 5.2 0.00 0.00 0.00 51 1014.9
20260509100017 66 142 1.7 5.2 0.00 0.00 0.00 50 1014.9
20260509100013 66 142 1.7 5.2 0.00 0.00 0.00 53 1014.9
20260509095706 66 194 1.7 5.2 0.00 0.00 0.00 51 1014.9
20260509095604 66 202 2.6 5.2 0.00 0.00 0.00 50 1014.9
20260509095526 66 235 1.7 6.1 0.00 0.00 0.00 49 1014.9
20260509095518 66 202 2.6 6.1 0.00 0.00 0.00 51 1015.0
20260509095514 66 206 1.7 6.1 0.00 0.00 0.00 51 1014.9
20260509095510 66 236 1.7 6.1 0.00 0.00 0.00 49 1014.9
20260509095202 66 255 1.7 6.1 0.00 0.00 0.00 49 1014.9
20260509095101 66 164 1.7 6.1 0.00 0.00 0.00 49 1015.0
20260509095001 66 163 1.7 6.1 0.00 0.00 0.00 51 1015.0
20260509094901 66 163 1.7 6.1 0.00 0.00 0.00 52 1015.0
20260509094801 66 162 1.7 6.1 0.00 0.00 0.00 49 1015.0
20260509094754 66 162 1.7 6.1 0.00 0.00 0.00 49 1015.0
20260509094702 66 142 1.7 7.0 0.00 0.00 0.00 53 1015.0
20260509094601 66 127 1.7 7.0 0.00 0.00 0.00 51 1015.0
20260509094501 66 96 1.7 7.0 0.00 0.00 0.00 50 1015.0
20260509094401 66 92 2.6 7.0 0.00 0.00 0.00 51 1015.0
20260509094301 65 93 2.6 7.0 0.00 0.00 0.00 50 1015.0
20260509094248 65 97 2.6 7.0 0.00 0.00 0.00 50 1015.0
20260509094201 65 86 2.6 7.0 0.00 0.00 0.00 53 1015.0
20260509094100 65 82 2.6 7.0 0.00 0.00 0.00 50 1015.0
20260509094007 65 101 2.6 7.0 0.00 0.00 0.00 52 1015.0
20260509094001 65 110 2.6 7.0 0.00 0.00 0.00 50 1015.0
20260509093956 65 84 2.6 7.0 0.00 0.00 0.00 51 1015.0
20260509093953 65 101 2.6 7.0 0.00 0.00 0.00 52 1015.0
20260509093701 65 103 2.6 7.0 0.00 0.00 0.00 53 1015.0
20260509093600 65 134 1.7 6.1 0.00 0.00 0.00 52 1015.0
20260509093501 65 131 1.7 5.2 0.00 0.00 0.00 53 1015.0
20260509093401 65 138 1.7 5.2 0.00 0.00 0.00 53 1015.0
20260509093301 65 104 1.7 5.2 0.00 0.00 0.00 54 1015.0
20260509093235 65 103 1.7 5.2 0.00 0.00 0.00 54 1015.0
20260509093201 65 101 1.7 5.2 0.00 0.00 0.00 54 1015.0
20260509093101 65 111 1.7 5.2 0.00 0.00 0.00 53 1015.0
20260509093001 65 112 0.9 3.5 0.00 0.00 0.00 53 1014.9
20260509092901 65 128 0.9 3.5 0.00 0.00 0.00 55 1015.0
20260509092738 64 91 1.7 5.2 0.00 0.00 0.00 54 1015.0
20260509092701 64 84 1.7 7.0 0.00 0.00 0.00 57 1015.0
20260509092601 64 84 1.7 7.0 0.00 0.00 0.00 55 1014.9
20260509092500 64 79 1.7 7.0 0.00 0.00 0.00 56 1015.0
20260509092400 64 65 1.7 7.0 0.00 0.00 0.00 56 1014.9
20260509092300 64 146 1.7 7.0 0.00 0.00 0.00 57 1015.0
20260509092236 64 146 1.7 7.0 0.00 0.00 0.00 57 1015.0
20260509092201 64 146 1.7 7.0 0.00 0.00 0.00 57 1015.0
20260509092102 64 117 1.7 7.0 0.00 0.00 0.00 56 1015.0
20260509092002 64 117 1.7 7.0 0.00 0.00 0.00 54 1015.0
20260509091955 64 150 1.7 7.0 0.00 0.00 0.00 56 1015.0
20260509091950 64 117 1.7 7.0 0.00 0.00 0.00 56 1015.0
20260509091946 64 149 1.7 7.0 0.00 0.00 0.00 56 1015.0
20260509091658 64 136 1.7 7.0 0.00 0.00 0.00 59 1015.0
20260509091558 64 137 0.9 4.3 0.00 0.00 0.00 59 1015.0
20260509091456 64 137 1.7 4.3 0.00 0.00 0.00 59 1015.0
20260509091353 64 137 1.7 5.2 0.00 0.00 0.00 60 1015.0
20260509091234 64 136 1.7 5.2 0.00 0.00 0.00 60 1015.0
20260509091152 64 87 1.7 5.2 0.00 0.00 0.00 59 1015.0
20260509091052 64 88 1.7 5.2 0.00 0.00 0.00 58 1015.0
20260509090950 64 178 2.6 5.2 0.00 0.00 0.00 60 1015.0
20260509090848 63 224 1.7 5.2 0.00 0.00 0.00 60 1015.0
20260509090732 63 286 2.6 5.2 0.00 0.00 0.00 58 1015.0
20260509090642 63 287 1.7 5.2 0.00 0.00 0.00 59 1015.0
20260509090542 63 284 1.7 5.2 0.00 0.00 0.00 59 1015.0
20260509090442 63 215 1.7 5.2 0.00 0.00 0.00 58 1015.0
20260509090342 63 221 1.7 4.3 0.00 0.00 0.00 59 1015.0
20260509090231 63 221 1.7 4.3 0.00 0.00 0.00 60 1015.1
20260509090136 63 214 0.9 4.3 0.00 0.00 0.00 60 1015.0
20260509090036 63 244 0.9 4.3 0.00 0.00 0.00 60 1015.0
20260509085936 63 144 0.9 3.5 0.00 0.00 0.00 59 1015.0
20260509085836 63 123 0.9 3.5 0.00 0.00 0.00 61 1015.0
20260509085731 63 128 0.9 3.5 0.00 0.00 0.00 60 1015.0
20260509085634 63 115 0.9 3.5 0.00 0.00 0.00 59 1015.0
20260509085534 62 115 0.9 3.5 0.00 0.00 0.00 61 1015.0
20260509085432 62 119 0.9 3.5 0.00 0.00 0.00 60 1015.0
20260509085329 62 119 0.9 3.5 0.00 0.00 0.00 60 1015.1
20260509085229 62 110 0.9 3.5 0.00 0.00 0.00 60 1015.1
20260509085129 62 110 0.9 3.5 0.00 0.00 0.00 63 1015.0
20260509085029 62 125 0.9 3.5 0.00 0.00 0.00 63 1015.0
20260509084930 62 125 0.9 3.5 0.00 0.00 0.00 62 1015.0
20260509084830 62 136 0.9 3.5 0.00 0.00 0.00 63 1015.1
20260509084729 62 138 0.9 3.5 0.00 0.00 0.00 63 1015.1
20260509084629 62 105 0.9 7.0 0.00 0.00 0.00 63 1015.1
20260509084529 62 105 0.9 7.0 0.00 0.00 0.00 63 1015.1
20260509084429 62 105 0.9 7.0 0.00 0.00 0.00 64 1015.0
20260509084329 62 105 0.9 7.0 0.00 0.00 0.00 64 1015.0
20260509084229 61 104 0.9 7.0 0.00 0.00 0.00 64 1015.1
20260509084129 61 103 0.9 7.0 0.00 0.00 0.00 64 1015.0
20260509084029 61 103 1.7 7.0 0.00 0.00 0.00 64 1015.1
20260509083950 61 105 1.7 7.0 0.00 0.00 0.00 65 1015.0
20260509083946 61 105 1.7 7.0 0.00 0.00 0.00 63 1015.1
20260509083942 61 133 1.7 7.0 0.00 0.00 0.00 63 1015.1
20260509083632 61 146 1.7 5.2 0.00 0.00 0.00 63 1015.1
20260509083528 61 122 1.7 5.2 0.00 0.00 0.00 63 1015.1
20260509083428 61 122 1.7 5.2 0.00 0.00 0.00 63 1015.1
20260509083328 61 153 1.7 5.2 0.00 0.00 0.00 62 1015.1
20260509083229 61 153 1.7 5.2 0.00 0.00 0.00 63 1015.1
20260509083129 61 211 1.7 5.2 0.00 0.00 0.00 65 1015.1
20260509083029 61 212 0.9 5.2 0.00 0.00 0.00 65 1015.1
20260509082929 60 175 0.9 4.3 0.00 0.00 0.00 65 1015.1
20260509082827 60 192 1.7 4.3 0.00 0.00 0.00 65 1015.1
20260509082727 60 192 1.7 4.3 0.00 0.00 0.00 65 1015.1
20260509082628 60 159 1.7 4.3 0.00 0.00 0.00 65 1015.1
20260509082528 60 157 1.7 4.3 0.00 0.00 0.00 65 1015.1
20260509082427 60 122 1.7 4.3 0.00 0.00 0.00 66 1015.1
20260509082327 60 132 1.7 4.3 0.00 0.00 0.00 65 1015.1
20260509082228 60 132 2.6 4.3 0.00 0.00 0.00 65 1015.1
20260509082128 60 132 2.6 7.0 0.00 0.00 0.00 65 1015.1
20260509082027 60 132 2.6 7.0 0.00 0.00 0.00 65 1015.1
20260509081925 60 131 2.6 7.0 0.00 0.00 0.00 65 1015.1
20260509081822 60 163 2.6 7.0 0.00 0.00 0.00 65 1015.1
20260509081722 60 171 2.6 7.0 0.00 0.00 0.00 66 1015.2
20260509081622 60 146 2.6 7.0 0.00 0.00 0.00 67 1015.1
20260509081522 60 191 1.7 7.0 0.00 0.00 0.00 66 1015.2
20260509081420 60 173 1.7 7.0 0.00 0.00 0.00 67 1015.1
20260509081315 60 181 1.7 7.0 0.00 0.00 0.00 67 1015.1
20260509081229 60 155 1.7 7.0 0.00 0.00 0.00 68 1015.1
20260509081214 60 146 1.7 7.0 0.00 0.00 0.00 68 1015.1
20260509081114 60 183 1.7 6.1 0.00 0.00 0.00 69 1015.1
20260509081014 60 151 1.7 5.2 0.00 0.00 0.00 70 1015.1
20260509080914 60 163 1.7 5.2 0.00 0.00 0.00 71 1015.1
20260509080810 60 158 1.7 5.2 0.00 0.00 0.00 71 1015.1
20260509080708 60 173 1.7 5.2 0.00 0.00 0.00 70 1015.0
20260509080611 59 155 1.7 5.2 0.00 0.00 0.00 72 1015.0
20260509080508 59 163 2.6 5.2 0.00 0.00 0.00 71 1015.0
20260509080408 59 163 2.6 6.1 0.00 0.00 0.00 71 1015.1
20260509080304 59 163 2.6 6.1 0.00 0.00 0.00 70 1015.0
20260509080202 59 163 2.6 6.1 0.00 0.00 0.00 70 1015.0
20260509080001 59 123 1.7 6.1 0.00 0.00 0.00 72 1015.0
20260509075901 59 123 1.7 6.1 0.00 0.00 0.00 72 1015.0
20260509075801 59 147 1.7 6.1 0.00 0.00 0.00 72 1015.0
20260509075702 59 143 1.7 6.1 0.00 0.00 0.00 73 1015.0
20260509075606 59 157 1.7 6.1 0.00 0.00 0.00 72 1015.0
20260509075502 58 115 1.7 6.1 0.00 0.00 0.00 73 1015.0
20260509075401 58 144 0.9 6.1 0.00 0.00 0.00 73 1015.0
20260509075301 58 134 0.9 4.3 0.00 0.00 0.00 74 1015.0
20260509075213 58 141 0.9 3.5 0.00 0.00 0.00 75 1015.0
20260509075201 58 147 0.9 3.5 0.00 0.00 0.00 75 1015.0
20260509075106 58 151 0.9 3.5 0.00 0.00 0.00 74 1015.0
20260509075001 58 151 0.9 3.5 0.00 0.00 0.00 73 1015.0
20260509074943 58 154 0.9 3.5 0.00 0.00 0.00 75 1015.1
20260509074929 58 151 0.9 3.5 0.00 0.00 0.00 73 1015.1
20260509074925 58 152 0.9 3.5 0.00 0.00 0.00 74 1015.1
20260509074701 58 154 0.9 3.5 0.00 0.00 0.00 75 1015.1
20260509074604 57 155 0.9 4.3 0.00 0.00 0.00 74 1015.1
20260509074501 57 155 0.9 4.3 0.00 0.00 0.00 73 1015.1
20260509074435 57 142 0.9 4.3 0.00 0.00 0.00 76 1015.1
20260509074428 57 155 0.9 4.3 0.00 0.00 0.00 75 1015.2
20260509074424 57 160 0.9 4.3 0.00 0.00 0.00 77 1015.1
20260509074201 57 142 0.9 4.3 0.00 0.00 0.00 76 1015.1
20260509074101 57 142 0.9 4.3 0.00 0.00 0.00 76 1015.1
20260509073955 57 142 0.9 4.3 0.00 0.00 0.00 75 1015.1
20260509073853 57 142 0.9 4.3 0.00 0.00 0.00 75 1015.1
20260509073753 57 142 0.9 4.3 0.00 0.00 0.00 75 1015.1
20260509073709 57 142 0.9 4.3 0.00 0.00 0.00 75 1015.1
20260509073653 57 143 0.9 4.3 0.00 0.00 0.00 75 1015.1
20260509073557 57 101 0.9 2.6 0.00 0.00 0.00 76 1015.0
20260509073454 56 101 0.9 2.6 0.00 0.00 0.00 76 1015.1
20260509073354 56 101 0.9 2.6 0.00 0.00 0.00 76 1015.1
20260509073254 56 101 0.9 2.6 0.00 0.00 0.00 76 1015.1
20260509073210 56 101 0.9 2.6 0.00 0.00 0.00 76 1015.1
20260509073154 56 101 0.9 2.6 0.00 0.00 0.00 76 1015.1
20260509073056 56 101 0.9 5.2 0.00 0.00 0.00 77 1015.0
20260509072953 56 101 0.9 5.2 0.00 0.00 0.00 76 1015.1
20260509072854 56 101 0.9 5.2 0.00 0.00 0.00 76 1015.0
20260509072752 56 101 0.9 5.2 0.00 0.00 0.00 76 1015.0
20260509072711 56 101 0.9 5.2 0.00 0.00 0.00 76 1015.0
20260509072652 56 101 0.9 5.2 0.00 0.00 0.00 76 1015.0
20260509072554 56 101 0.9 5.2 0.00 0.00 0.00 76 1015.0
20260509072447 56 101 0.9 5.2 0.00 0.00 0.00 76 1015.0
20260509072347 56 101 0.9 5.2 0.00 0.00 0.00 76 1015.0
20260509072245 56 115 0.9 5.2 0.00 0.00 0.00 76 1015.0
20260509072209 56 116 0.9 5.2 0.00 0.00 0.00 76 1015.0
20260509072146 56 116 0.9 5.2 0.00 0.00 0.00 76 1015.0
20260509072051 56 127 0.9 3.5 0.00 0.00 0.00 76 1015.0
20260509071944 56 128 0.9 3.5 0.00 0.00 0.00 76 1015.1
20260509071844 56 127 0.9 3.5 0.00 0.00 0.00 76 1015.1
20260509071744 56 128 0.9 3.5 0.00 0.00 0.00 76 1015.1
20260509071708 56 128 0.9 3.5 0.00 0.00 0.00 77 1015.1
20260509071643 56 98 0.9 3.5 0.00 0.00 0.00 77 1015.1
20260509071545 56 97 0.9 3.5 0.00 0.00 0.00 76 1015.1
20260509071443 56 96 0.9 3.5 0.00 0.00 0.00 76 1015.1
20260509071338 56 96 0.9 3.5 0.00 0.00 0.00 77 1015.2
20260509071238 56 101 0.9 3.5 0.00 0.00 0.00 76 1015.1
20260509071209 56 101 0.9 3.5 0.00 0.00 0.00 77 1015.1
20260509071137 56 101 0.9 3.5 0.00 0.00 0.00 77 1015.1
20260509071038 56 115 0.9 3.5 0.00 0.00 0.00 76 1015.1
20260509070938 55 115 1.7 5.2 0.00 0.00 0.00 76 1015.1
20260509070834 55 115 1.7 6.1 0.00 0.00 0.00 76 1015.1
20260509070731 55 116 1.7 6.1 0.00 0.00 0.00 76 1015.1
20260509070708 55 107 1.7 6.1 0.00 0.00 0.00 76 1015.1
20260509070631 55 90 1.7 6.1 0.00 0.00 0.00 76 1015.1
20260509070532 55 97 1.7 6.1 0.00 0.00 0.00 76 1015.2
20260509070432 55 119 1.7 6.1 0.00 0.00 0.00 76 1015.2
20260509070332 55 119 1.7 6.1 0.00 0.00 0.00 76 1015.2
20260509070230 55 127 1.7 6.1 0.00 0.00 0.00 76 1015.2
20260509070207 55 111 1.7 6.1 0.00 0.00 0.00 76 1015.2
20260509070130 55 111 1.7 6.1 0.00 0.00 0.00 76 1015.2
20260509070030 55 112 1.7 6.1 0.00 0.00 0.00 76 1015.2
20260509065930 55 88 1.7 6.1 0.00 0.00 0.00 76 1015.2
20260509065830 55 121 1.7 5.2 0.00 0.00 0.00 76 1015.2
20260509065707 55 105 1.7 5.2 0.00 0.00 0.00 76 1015.2
20260509065629 55 127 1.7 5.2 0.00 0.00 0.00 75 1015.2
20260509065529 55 108 1.7 5.2 0.00 0.00 0.00 76 1015.2
20260509065429 55 103 0.9 5.2 0.00 0.00 0.00 76 1015.2
20260509065329 55 121 1.7 5.2 0.00 0.00 0.00 75 1015.2
20260509065205 55 105 1.7 5.2 0.00 0.00 0.00 76 1015.2
20260509065125 55 128 0.9 5.2 0.00 0.00 0.00 76 1015.2
20260509065023 55 101 0.9 5.2 0.00 0.00 0.00 76 1015.2
20260509064923 55 109 0.9 5.2 0.00 0.00 0.00 76 1015.2
20260509064821 55 107 0.9 5.2 0.00 0.00 0.00 75 1015.2
20260509064722 55 113 0.9 6.1 0.00 0.00 0.00 76 1015.2
20260509064705 55 128 0.9 6.1 0.00 0.00 0.00 76 1015.2
20260509064622 55 119 1.7 6.1 0.00 0.00 0.00 76 1015.2
20260509064521 55 120 1.7 6.1 0.00 0.00 0.00 76 1015.3
20260509064421 55 120 1.7 6.1 0.00 0.00 0.00 76 1015.2
20260509064321 55 121 1.7 6.1 0.00 0.00 0.00 76 1015.2
20260509064219 55 122 1.7 6.1 0.00 0.00 0.00 76 1015.2
20260509064204 55 119 1.7 6.1 0.00 0.00 0.00 76 1015.2
20260509064120 55 119 1.7 6.1 0.00 0.00 0.00 76 1015.2
20260509064018 55 119 2.6 7.0 0.00 0.00 0.00 76 1015.2
20260509063918 55 119 2.6 7.0 0.00 0.00 0.00 76 1015.2
20260509063818 55 119 2.6 7.0 0.00 0.00 0.00 76 1015.2
20260509063718 55 113 2.6 7.0 0.00 0.00 0.00 77 1015.2
20260509063703 55 100 2.6 7.0 0.00 0.00 0.00 77 1015.2
20260509063617 55 134 1.7 7.0 0.00 0.00 0.00 77 1015.2
20260509063518 55 154 1.7 7.0 0.00 0.00 0.00 77 1015.1
20260509063418 55 173 1.7 7.0 0.00 0.00 0.00 77 1015.1
20260509063316 55 91 1.7 7.0 0.00 0.00 0.00 76 1015.2
20260509063203 55 91 2.6 7.0 0.00 0.00 0.00 76 1015.1
20260509063115 55 138 2.6 7.0 0.00 0.00 0.00 76 1015.1
20260509063016 55 136 1.7 6.1 0.00 0.00 0.00 76 1015.1
20260509062916 55 121 1.7 6.1 0.00 0.00 0.00 77 1015.1
20260509062815 54 138 1.7 6.1 0.00 0.00 0.00 77 1015.1
20260509062703 54 97 1.7 6.1 0.00 0.00 0.00 77 1015.1
20260509062615 54 82 1.7 6.1 0.00 0.00 0.00 77 1015.1
20260509062516 54 147 1.7 6.1 0.00 0.00 0.00 77 1015.1
20260509062432 53 106 1.7 5.2 0.00 0.00 0.00 77 1015.1
20260509062423 54 130 1.7 5.2 0.00 0.00 0.00 77 1015.1
20260509062419 54 130 1.7 5.2 0.00 0.00 0.00 77 1015.1
20260509062415 53 133 1.7 5.2 0.00 0.00 0.00 77 1015.1
20260509062116 53 111 0.9 5.2 0.00 0.00 0.00 77 1015.1
20260509062015 53 119 0.9 5.2 0.00 0.00 0.00 77 1015.1
20260509061915 53 108 0.9 3.5 0.00 0.00 0.00 77 1015.0
20260509061815 53 121 0.9 3.5 0.00 0.00 0.00 77 1015.0
20260509061715 53 153 0.9 3.5 0.00 0.00 0.00 77 1015.0
20260509061704 53 111 0.9 3.5 0.00 0.00 0.00 77 1015.0
20260509061616 53 105 0.9 3.5 0.00 0.00 0.00 78 1015.0
20260509061512 53 105 0.9 3.5 0.00 0.00 0.00 78 1015.0
20260509061411 53 112 0.9 2.6 0.00 0.00 0.00 79 1015.0
20260509061311 52 119 0.9 2.6 0.00 0.00 0.00 78 1015.0
20260509061205 52 127 0.9 2.6 0.00 0.00 0.00 79 1015.0
20260509061112 52 127 0.9 2.6 0.00 0.00 0.00 79 1015.0
20260509061011 52 108 0.9 2.6 0.00 0.00 0.00 79 1015.0
20260509060911 52 108 0.9 2.6 0.00 0.00 0.00 79 1015.0
20260509060811 52 108 0.9 2.6 0.00 0.00 0.00 79 1015.0
20260509060703 52 108 0.9 2.6 0.00 0.00 0.00 80 1015.0
20260509060611 52 111 0.0 2.6 0.00 0.00 0.00 80 1015.0
20260509060516 51 109 0.0 2.6 0.00 0.00 0.00 79 1015.0
20260509060411 51 109 0.9 2.6 0.00 0.00 0.00 79 1015.0
20260509060311 51 109 0.9 2.6 0.00 0.00 0.00 79 1015.0
20260509060204 51 113 0.9 2.6 0.00 0.00 0.00 80 1015.0
20260509060112 51 113 0.0 2.6 0.00 0.00 0.00 80 1015.0
20260509060016 51 113 0.9 2.6 0.00 0.00 0.00 80 1015.0
20260509055924 51 113 0.9 2.6 0.00 0.00 0.00 80 1015.0
20260509055920 51 113 0.9 5.2 0.00 0.00 0.00 80 1015.0
20260509055916 51 107 0.9 5.2 0.00 0.00 0.00 80 1015.0
20260509055607 51 105 0.9 5.2 0.00 0.00 0.00 80 1015.0
20260509055507 51 105 0.9 5.2 0.00 0.00 0.00 80 1015.0
20260509055407 51 105 0.9 5.2 0.00 0.00 0.00 81 1015.0
20260509055307 51 105 0.9 5.2 0.00 0.00 0.00 81 1015.0
20260509055204 50 105 0.9 5.2 0.00 0.00 0.00 80 1015.0
20260509055108 50 105 0.9 5.2 0.00 0.00 0.00 80 1015.0
20260509055008 50 106 0.9 5.2 0.00 0.00 0.00 80 1015.0
20260509054908 50 121 0.0 5.2 0.00 0.00 0.00 81 1015.0
20260509054808 50 98 0.0 2.6 0.00 0.00 0.00 81 1015.0
20260509054707 50 96 0.0 2.6 0.00 0.00 0.00 81 1015.0
20260509054703 50 99 0.0 2.6 0.00 0.00 0.00 81 1015.0
20260509054607 50 105 0.0 2.6 0.00 0.00 0.00 81 1015.0
20260509054508 50 111 0.9 2.6 0.00 0.00 0.00 81 1015.0
20260509054408 50 110 0.9 2.6 0.00 0.00 0.00 82 1014.9
20260509054307 49 111 0.9 2.6 0.00 0.00 0.00 82 1015.0
20260509054205 49 111 0.9 2.6 0.00 0.00 0.00 82 1015.0
20260509054107 49 110 0.9 2.6 0.00 0.00 0.00 82 1015.0
20260509054007 49 110 0.9 2.6 0.00 0.00 0.00 81 1015.0
20260509053907 49 110 0.9 2.6 0.00 0.00 0.00 82 1015.0
20260509053807 49 111 0.9 2.6 0.00 0.00 0.00 82 1015.0
20260509053703 49 108 0.9 2.6 0.00 0.00 0.00 82 1015.1
20260509053603 49 111 0.9 2.6 0.00 0.00 0.00 82 1015.1
20260509053503 49 112 0.0 2.6 0.00 0.00 0.00 83 1015.1
20260509053423 49 113 0.0 1.7 0.00 0.00 0.00 83 1015.1
20260509053419 49 113 0.9 1.7 0.00 0.00 0.00 83 1015.1
20260509053415 49 113 0.9 2.6 0.00 0.00 0.00 83 1015.1
20260509053104 49 113 0.9 2.6 0.00 0.00 0.00 83 1015.1
20260509053004 49 113 0.9 2.6 0.00 0.00 0.00 82 1015.1
20260509052903 49 113 0.9 2.6 0.00 0.00 0.00 82 1015.1
20260509052803 49 113 0.9 2.6 0.00 0.00 0.00 82 1015.1
20260509052701 49 113 0.9 3.5 0.00 0.00 0.00 82 1015.1
20260509052601 49 113 0.9 3.5 0.00 0.00 0.00 82 1015.1
20260509052502 49 113 0.9 3.5 0.00 0.00 0.00 82 1015.1
20260509052423 49 113 0.9 3.5 0.00 0.00 0.00 82 1015.1
20260509052419 49 113 0.9 3.5 0.00 0.00 0.00 82 1015.0
20260509052415 49 113 0.9 3.5 0.00 0.00 0.00 83 1015.0
20260509052101 49 113 0.9 3.5 0.00 0.00 0.00 83 1015.0
20260509052001 49 113 1.7 4.3 0.00 0.00 0.00 83 1015.0
20260509051901 49 115 1.7 4.3 0.00 0.00 0.00 84 1015.0
20260509051801 49 115 1.7 4.3 0.00 0.00 0.00 84 1015.0
20260509051701 49 123 1.7 4.3 0.00 0.00 0.00 84 1015.0
20260509051601 49 124 1.7 4.3 0.00 0.00 0.00 84 1015.0
20260509051501 49 126 1.7 4.3 0.00 0.00 0.00 84 1015.0
20260509051401 49 129 1.7 4.3 0.00 0.00 0.00 84 1015.0
20260509051301 49 129 1.7 4.3 0.00 0.00 0.00 84 1015.0
20260509051201 49 143 1.7 4.3 0.00 0.00 0.00 84 1015.1
20260509051101 49 144 1.7 4.3 0.00 0.00 0.00 84 1015.0
20260509051001 49 134 0.9 3.5 0.00 0.00 0.00 84 1015.1
20260509050900 49 125 0.9 3.5 0.00 0.00 0.00 84 1015.0
20260509050800 49 122 0.9 2.6 0.00 0.00 0.00 84 1015.1
20260509050700 49 120 0.9 2.6 0.00 0.00 0.00 84 1015.0
20260509050601 49 119 0.9 2.6 0.00 0.00 0.00 83 1015.0
20260509050501 49 119 0.9 2.6 0.00 0.00 0.00 83 1015.0
20260509050423 48 117 0.9 2.6 0.00 0.00 0.00 83 1015.0
20260509050419 49 119 0.9 2.6 0.00 0.00 0.00 84 1015.0
20260509050415 49 119 1.7 2.6 0.00 0.00 0.00 83 1015.0
20260509050407 49 119 1.7 2.6 0.00 0.00 0.00 83 1015.0
20260509050148 49 119 1.7 2.6 0.00 0.00 0.00 83 1015.0
20260509050144 48 119 1.7 2.6 0.00 0.00 0.00 83 1015.0
20260509045920 48 119 0.9 2.6 0.00 0.00 0.00 83 1015.0
20260509045916 48 117 0.9 2.6 0.00 0.00 0.00 83 1015.0
20260509045912 48 117 0.9 2.6 0.00 0.00 0.00 83 1015.0
20260509045601 48 117 0.9 2.6 0.00 0.00 0.00 83 1015.0
20260509045501 48 115 0.9 1.7 0.00 0.00 0.00 83 1014.9
20260509045401 48 115 0.9 1.7 0.00 0.00 0.00 83 1015.0
20260509045301 48 115 0.9 1.7 0.00 0.00 0.00 83 1014.9
20260509045202 48 115 0.9 1.7 0.00 0.00 0.00 83 1014.9
20260509045101 48 115 0.9 1.7 0.00 0.00 0.00 83 1014.9
20260509045000 48 115 0.0 1.7 0.00 0.00 0.00 83 1014.9
20260509044901 48 115 0.0 1.7 0.00 0.00 0.00 83 1014.9
20260509044801 48 115 0.0 1.7 0.00 0.00 0.00 83 1014.9
20260509044701 48 115 0.9 3.5 0.00 0.00 0.00 83 1014.9
20260509044601 48 115 0.9 3.5 0.00 0.00 0.00 83 1014.9
20260509044500 48 115 0.9 3.5 0.00 0.00 0.00 83 1014.9
20260509044421 48 115 0.9 3.5 0.00 0.00 0.00 83 1014.9
20260509044417 48 115 0.9 3.5 0.00 0.00 0.00 83 1014.8
20260509044412 48 115 0.9 5.2 0.00 0.00 0.00 83 1014.8
20260509044100 48 115 0.9 5.2 0.00 0.00 0.00 83 1014.8
20260509044001 48 115 1.7 5.2 0.00 0.00 0.00 83 1014.8
20260509043900 48 115 1.7 5.2 0.00 0.00 0.00 83 1014.8
20260509043800 48 116 1.7 5.2 0.00 0.00 0.00 83 1014.8
20260509043701 48 135 1.7 5.2 0.00 0.00 0.00 83 1014.8
20260509043601 48 114 1.7 5.2 0.00 0.00 0.00 83 1014.7
20260509043501 48 103 1.7 5.2 0.00 0.00 0.00 83 1014.7
20260509043401 48 103 1.7 5.2 0.00 0.00 0.00 83 1014.7
20260509043301 48 109 1.7 5.2 0.00 0.00 0.00 83 1014.6
20260509043201 48 121 1.7 4.3 0.00 0.00 0.00 83 1014.6
20260509043156 48 121 1.7 4.3 0.00 0.00 0.00 83 1014.6
20260509043056 48 113 2.6 6.1 0.00 0.00 0.00 82 1014.6
20260509042955 48 95 2.6 6.1 0.00 0.00 0.00 82 1014.6
20260509042918 48 103 2.6 6.1 0.00 0.00 0.00 82 1014.6
20260509042913 48 98 2.6 6.1 0.00 0.00 0.00 82 1014.6
20260509042656 48 141 3.5 7.0 0.00 0.00 0.00 81 1014.6
20260509042652 48 93 2.6 6.1 0.00 0.00 0.00 82 1014.6
20260509042648 48 95 3.5 7.0 0.00 0.00 0.00 82 1014.6
20260509042644 48 112 3.5 7.0 0.00 0.00 0.00 82 1014.6
20260509042418 48 113 3.5 7.0 0.00 0.00 0.00 82 1014.5
20260509042414 48 128 3.5 7.0 0.00 0.00 0.00 81 1014.6
20260509042146 48 134 3.5 7.0 0.00 0.00 0.00 81 1014.6
20260509042046 48 121 3.5 7.8 0.00 0.00 0.00 81 1014.6
20260509041945 48 157 3.5 7.8 0.00 0.00 0.00 81 1014.5
20260509041843 48 150 4.3 7.8 0.00 0.00 0.00 81 1014.6
20260509041741 48 130 4.3 7.8 0.00 0.00 0.00 81 1014.5
20260509041701 48 140 4.3 7.8 0.00 0.00 0.00 81 1014.5
20260509041638 48 142 3.5 7.8 0.00 0.00 0.00 81 1014.5
20260509041538 48 135 3.5 7.8 0.00 0.00 0.00 81 1014.5
20260509041437 48 137 3.5 7.8 0.00 0.00 0.00 81 1014.5
20260509041335 48 146 3.5 7.8 0.00 0.00 0.00 81 1014.5
20260509041236 48 140 3.5 7.8 0.00 0.00 0.00 81 1014.5
20260509041201 48 142 3.5 7.8 0.00 0.00 0.00 81 1014.5
20260509041135 48 138 3.5 7.8 0.00 0.00 0.00 81 1014.5
20260509041035 48 140 2.6 6.1 0.00 0.00 0.00 81 1014.5
20260509040935 48 132 2.6 6.1 0.00 0.00 0.00 81 1014.5
20260509040835 48 136 1.7 6.1 0.00 0.00 0.00 81 1014.5
20260509040735 48 143 1.7 6.1 0.00 0.00 0.00 81 1014.5
20260509040700 48 132 1.7 6.1 0.00 0.00 0.00 81 1014.5
20260509040635 48 143 0.9 6.1 0.00 0.00 0.00 81 1014.6
20260509040534 48 138 0.9 5.2 0.00 0.00 0.00 81 1014.5
20260509040434 48 146 0.9 4.3 0.00 0.00 0.00 82 1014.6
20260509040332 48 136 0.9 3.5 0.00 0.00 0.00 82 1014.5
20260509040231 48 164 0.0 2.6 0.00 0.00 0.00 82 1014.5
20260509040200 48 148 0.0 2.6 0.00 0.00 0.00 82 1014.5
20260509040131 48 143 0.0 1.7 0.00 0.00 0.00 82 1014.5
20260509040031 48 140 0.0 2.6 0.00 0.00 0.00 82 1014.6
20260509035929 48 140 0.0 2.6 0.00 0.00 0.00 82 1014.5
20260509035829 48 140 0.0 2.6 0.00 0.00 0.00 81 1014.5
20260509035701 48 140 0.9 2.6 0.00 0.00 0.00 81 1014.5
20260509035629 48 140 0.9 2.6 0.00 0.00 0.00 81 1014.5
20260509035530 48 140 0.9 2.6 0.00 0.00 0.00 81 1014.5
20260509035429 48 140 0.9 2.6 0.00 0.00 0.00 81 1014.5
20260509035330 48 140 0.9 2.6 0.00 0.00 0.00 81 1014.5
20260509035203 48 140 0.9 2.6 0.00 0.00 0.00 81 1014.6
20260509035159 48 140 0.9 2.6 0.00 0.00 0.00 81 1014.6
20260509035029 48 141 0.9 2.6 0.00 0.00 0.00 81 1014.6
20260509034929 48 141 0.9 2.6 0.00 0.00 0.00 81 1014.6
20260509034829 48 140 0.9 2.6 0.00 0.00 0.00 81 1014.6
20260509034729 48 140 0.9 2.6 0.00 0.00 0.00 81 1014.6
20260509034701 48 123 0.9 2.6 0.00 0.00 0.00 81 1014.6
20260509034628 48 123 0.0 2.6 0.00 0.00 0.00 81 1014.6
20260509034528 48 123 0.0 1.7 0.00 0.00 0.00 81 1014.5
20260509034429 48 123 0.0 1.7 0.00 0.00 0.00 81 1014.5
20260509034328 48 123 0.0 0.9 0.00 0.00 0.00 81 1014.5
20260509034201 48 123 0.0 0.9 0.00 0.00 0.00 81 1014.4
20260509034129 48 123 0.0 0.9 0.00 0.00 0.00 81 1014.5
20260509034029 48 123 0.0 0.9 0.00 0.00 0.00 81 1014.5
20260509033929 48 123 0.0 0.9 0.00 0.00 0.00 81 1014.4
20260509033829 48 123 0.0 0.9 0.00 0.00 0.00 81 1014.4
20260509033701 48 123 0.0 0.9 0.00 0.00 0.00 81 1014.5
20260509033628 48 123 0.0 0.9 0.00 0.00 0.00 81 1014.5
20260509033528 48 123 0.0 0.9 0.00 0.00 0.00 81 1014.4
20260509033428 48 123 0.0 0.9 0.00 0.00 0.00 81 1014.5
20260509033329 48 123 0.0 0.9 0.00 0.00 0.00 81 1014.5
20260509033229 48 123 0.0 0.9 0.00 0.00 0.00 81 1014.5
20260509033200 49 123 0.0 0.9 0.00 0.00 0.00 81 1014.5
20260509033128 49 123 0.0 0.9 0.00 0.00 0.00 81 1014.4
20260509033029 49 123 0.0 0.9 0.00 0.00 0.00 81 1014.4
20260509032929 49 123 0.0 0.9 0.00 0.00 0.00 81 1014.4
20260509032829 49 123 0.0 1.7 0.00 0.00 0.00 81 1014.4
20260509032701 49 123 0.0 1.7 0.00 0.00 0.00 81 1014.4
20260509032629 49 123 0.0 1.7 0.00 0.00 0.00 81 1014.4
20260509032530 49 123 0.0 1.7 0.00 0.00 0.00 81 1014.4
20260509032429 49 123 0.0 1.7 0.00 0.00 0.00 81 1014.5
20260509032329 49 123 0.0 1.7 0.00 0.00 0.00 81 1014.5
20260509032201 49 123 0.0 1.7 0.00 0.00 0.00 81 1014.5
20260509032129 49 123 0.0 1.7 0.00 0.00 0.00 81 1014.5
20260509032029 49 123 0.0 1.7 0.00 0.00 0.00 81 1014.5
20260509031930 49 123 0.0 1.7 0.00 0.00 0.00 81 1014.5
20260509031926 49 123 0.0 0.9 0.00 0.00 0.00 81 1014.5
20260509031917 49 123 0.0 1.7 0.00 0.00 0.00 81 1014.5
20260509031913 49 123 0.0 1.7 0.00 0.00 0.00 81 1014.5
20260509031629 49 123 0.0 0.9 0.00 0.00 0.00 81 1014.5
20260509031529 49 123 0.0 0.9 0.00 0.00 0.00 80 1014.6
20260509031429 49 123 0.0 0.9 0.00 0.00 0.00 80 1014.5
20260509031329 49 123 0.0 1.7 0.00 0.00 0.00 80 1014.5
20260509031200 49 123 0.0 1.7 0.00 0.00 0.00 80 1014.5
20260509031129 49 123 0.9 1.7 0.00 0.00 0.00 81 1014.5
20260509031029 49 123 0.9 1.7 0.00 0.00 0.00 81 1014.5
20260509030928 49 123 0.9 1.7 0.00 0.00 0.00 81 1014.5
20260509030828 49 123 0.9 1.7 0.00 0.00 0.00 81 1014.5
20260509030700 49 123 0.9 1.7 0.00 0.00 0.00 80 1014.5
20260509030629 49 123 0.9 1.7 0.00 0.00 0.00 80 1014.6
20260509030529 49 123 0.9 1.7 0.00 0.00 0.00 81 1014.5
20260509030429 49 123 0.0 1.7 0.00 0.00 0.00 81 1014.5
20260509030328 49 123 0.0 1.7 0.00 0.00 0.00 80 1014.5
20260509030200 49 123 0.0 1.7 0.00 0.00 0.00 80 1014.5
20260509030128 49 123 0.0 0.9 0.00 0.00 0.00 80 1014.5
20260509030029 49 123 0.0 0.9 0.00 0.00 0.00 80 1014.5
20260509025929 49 123 0.0 0.0 0.00 0.00 0.00 81 1014.5
20260509025829 49 123 0.0 0.0 0.00 0.00 0.00 80 1014.5
20260509025729 49 123 0.0 0.0 0.00 0.00 0.00 81 1014.5
20260509025701 49 123 0.0 0.0 0.00 0.00 0.00 80 1014.5
20260509025630 49 123 0.0 0.9 0.00 0.00 0.00 80 1014.5
20260509025529 49 123 0.0 0.9 0.00 0.00 0.00 80 1014.5
20260509025429 49 123 0.0 0.9 0.00 0.00 0.00 80 1014.5
20260509025329 49 123 0.0 0.9 0.00 0.00 0.00 80 1014.5
20260509025201 49 123 0.0 1.7 0.00 0.00 0.00 80 1014.5
20260509025129 49 123 0.0 1.7 0.00 0.00 0.00 80 1014.6
20260509025029 49 123 0.0 1.7 0.00 0.00 0.00 80 1014.5
20260509024929 49 123 0.0 1.7 0.00 0.00 0.00 80 1014.5
20260509024829 49 123 0.0 1.7 0.00 0.00 0.00 80 1014.5
20260509024701 49 123 0.0 1.7 0.00 0.00 0.00 80 1014.6
20260509024628 49 123 0.0 1.7 0.00 0.00 0.00 80 1014.6
20260509024528 49 123 0.0 1.7 0.00 0.00 0.00 80 1014.6
20260509024429 49 123 0.0 1.7 0.00 0.00 0.00 80 1014.6
20260509024328 49 123 0.0 1.7 0.00 0.00 0.00 80 1014.5
20260509024201 49 123 0.0 1.7 0.00 0.00 0.00 80 1014.6
20260509024129 49 123 0.9 1.7 0.00 0.00 0.00 80 1014.6
20260509024029 49 123 0.9 1.7 0.00 0.00 0.00 80 1014.6
20260509023929 49 123 0.9 1.7 0.00 0.00 0.00 80 1014.7
20260509023828 49 123 0.9 1.7 0.00 0.00 0.00 80 1014.7
20260509023700 49 123 0.9 1.7 0.00 0.00 0.00 80 1014.7
20260509023629 49 123 0.9 1.7 0.00 0.00 0.00 80 1014.8
20260509023529 49 123 0.9 1.7 0.00 0.00 0.00 80 1014.7
20260509023429 49 123 0.9 1.7 0.00 0.00 0.00 80 1014.7
20260509023329 49 123 0.0 1.7 0.00 0.00 0.00 80 1014.7
20260509023200 49 123 0.0 1.7 0.00 0.00 0.00 80 1014.6
20260509023130 49 123 0.0 1.7 0.00 0.00 0.00 80 1014.6
20260509023029 49 123 0.0 1.7 0.00 0.00 0.00 79 1014.6
20260509022929 49 123 0.0 0.9 0.00 0.00 0.00 80 1014.6
20260509022829 49 123 0.0 0.9 0.00 0.00 0.00 80 1014.7
20260509022701 49 123 0.0 0.9 0.00 0.00 0.00 79 1014.6
20260509022629 49 123 0.0 0.9 0.00 0.00 0.00 79 1014.7
20260509022527 49 123 0.0 1.7 0.00 0.00 0.00 79 1014.7
20260509022427 49 123 0.0 1.7 0.00 0.00 0.00 79 1014.7
20260509022325 49 123 0.0 1.7 0.00 0.00 0.00 79 1014.6
20260509022223 49 123 0.0 1.7 0.00 0.00 0.00 79 1014.6
20260509022201 49 123 0.0 1.7 0.00 0.00 0.00 80 1014.6
20260509022123 49 123 0.0 1.7 0.00 0.00 0.00 80 1014.6
20260509022022 49 123 0.0 2.6 0.00 0.00 0.00 80 1014.6
20260509021917 49 123 0.9 2.6 0.00 0.00 0.00 80 1014.6
20260509021815 49 123 0.9 2.6 0.00 0.00 0.00 80 1014.5
20260509021701 49 123 0.9 2.6 0.00 0.00 0.00 79 1014.4
20260509021615 49 123 0.9 2.6 0.00 0.00 0.00 79 1014.3
20260509021514 49 123 0.9 2.6 0.00 0.00 0.00 79 1014.3
20260509021413 49 123 0.9 2.6 0.00 0.00 0.00 79 1014.3
20260509021313 49 123 0.9 2.6 0.00 0.00 0.00 79 1014.3
20260509021201 49 123 0.9 2.6 0.00 0.00 0.00 79 1014.2
20260509021111 49 123 0.9 2.6 0.00 0.00 0.00 79 1014.2
20260509021009 49 136 0.0 2.6 0.00 0.00 0.00 79 1014.3
20260509020909 49 136 0.0 2.6 0.00 0.00 0.00 79 1014.3
20260509020807 49 136 0.0 2.6 0.00 0.00 0.00 79 1014.3
20260509020700 49 136 0.0 2.6 0.00 0.00 0.00 79 1014.4
20260509020605 49 137 0.0 0.9 0.00 0.00 0.00 79 1014.4
20260509020503 49 137 0.0 0.9 0.00 0.00 0.00 79 1014.4
20260509020403 49 137 0.0 0.9 0.00 0.00 0.00 79 1014.5
20260509020303 49 137 0.0 0.9 0.00 0.00 0.00 79 1014.5
20260509020201 49 137 0.0 0.9 0.00 0.00 0.00 79 1014.5
20260509020001 49 137 0.0 0.9 0.00 0.00 0.00 79 1014.6
20260509015925 49 137 0.0 1.7 0.00 0.00 0.00 79 1014.6
20260509015917 49 137 0.9 2.6 0.00 0.00 0.00 79 1014.6
20260509015913 49 137 0.9 3.5 0.00 0.00 0.00 79 1014.6
20260509015601 49 137 0.9 4.3 0.00 0.00 0.00 79 1014.6
20260509015501 49 137 0.9 4.3 0.00 0.00 0.00 79 1014.5
20260509015424 49 137 1.7 4.3 0.00 0.00 0.00 78 1014.5
20260509015415 49 137 1.7 4.3 0.00 0.00 0.00 78 1014.5
20260509015411 49 137 1.7 4.3 0.00 0.00 0.00 78 1014.5
20260509015101 49 137 2.6 4.3 0.00 0.00 0.00 78 1014.5
20260509015001 49 137 2.6 6.1 0.00 0.00 0.00 78 1014.4
20260509014901 49 136 2.6 6.1 0.00 0.00 0.00 78 1014.4
20260509014801 49 138 3.5 7.0 0.00 0.00 0.00 78 1014.4
20260509014700 49 132 3.5 7.0 0.00 0.00 0.00 78 1014.4
20260509014600 49 136 3.5 7.0 0.00 0.00 0.00 77 1014.4
20260509014500 49 127 3.5 7.0 0.00 0.00 0.00 77 1014.4
20260509014400 50 143 3.5 7.0 0.00 0.00 0.00 77 1014.3
20260509014301 50 144 3.5 7.0 0.00 0.00 0.00 77 1014.3
20260509014201 50 143 3.5 7.0 0.00 0.00 0.00 77 1014.3
20260509014101 50 140 3.5 7.0 0.00 0.00 0.00 77 1014.3
20260509014001 50 126 3.5 7.0 0.00 0.00 0.00 77 1014.2
20260509013901 50 148 3.5 7.0 0.00 0.00 0.00 76 1014.2
20260509013801 50 132 3.5 7.0 0.00 0.00 0.00 76 1014.2
20260509013700 50 138 3.5 7.0 0.00 0.00 0.00 76 1014.2
20260509013600 50 128 2.6 7.0 0.00 0.00 0.00 76 1014.3
20260509013500 50 137 2.6 6.1 0.00 0.00 0.00 76 1014.2
20260509013400 50 142 2.6 5.2 0.00 0.00 0.00 76 1014.2
20260509013301 50 142 2.6 5.2 0.00 0.00 0.00 76 1014.3
20260509013201 50 144 2.6 5.2 0.00 0.00 0.00 76 1014.3
20260509013101 50 144 2.6 5.2 0.00 0.00 0.00 76 1014.3
20260509012957 50 132 2.6 5.2 0.00 0.00 0.00 76 1014.3
20260509012857 50 119 2.6 5.2 0.00 0.00 0.00 76 1014.3
20260509012757 50 137 2.6 4.3 0.00 0.00 0.00 76 1014.3
20260509012702 50 136 2.6 5.2 0.00 0.00 0.00 76 1014.3
20260509012656 50 134 2.6 5.2 0.00 0.00 0.00 76 1014.3
20260509012556 50 142 2.6 5.2 0.00 0.00 0.00 76 1014.2
20260509012451 50 140 2.6 5.2 0.00 0.00 0.00 76 1014.2
20260509012351 50 147 2.6 5.2 0.00 0.00 0.00 75 1014.3
20260509012250 50 148 1.7 5.2 0.00 0.00 0.00 75 1014.3
20260509012200 50 139 1.7 5.2 0.00 0.00 0.00 75 1014.3
20260509012151 50 144 1.7 5.2 0.00 0.00 0.00 75 1014.2
20260509012051 50 143 1.7 5.2 0.00 0.00 0.00 75 1014.2
20260509011945 50 141 1.7 5.2 0.00 0.00 0.00 75 1014.2
20260509011845 50 138 1.7 5.2 0.00 0.00 0.00 75 1014.2
20260509011744 50 111 1.7 5.2 0.00 0.00 0.00 75 1014.2
20260509011701 50 141 1.7 4.3 0.00 0.00 0.00 75 1014.2
20260509011645 50 141 1.7 4.3 0.00 0.00 0.00 75 1014.2
20260509011544 50 140 1.7 4.3 0.00 0.00 0.00 75 1014.2
20260509011441 50 140 1.7 4.3 0.00 0.00 0.00 75 1014.2
20260509011339 50 136 1.7 4.3 0.00 0.00 0.00 75 1014.2
20260509011239 50 146 1.7 4.3 0.00 0.00 0.00 75 1014.2